Time,TemperatureF,DewpointF,PressureIn,WindDirection,WindDirectionDegrees,WindSpeedMPH,WindSpeedGustMPH,Humidity,HourlyPrecipIn,Conditions,Clouds,dailyrainin,SoftwareType,DateUTC
2013-07-06 00:00:00,74.3,55.0,30.03,SSW,202,6.6,6.6,51,0.00,,CLR,0.00,VWS V14.01,2013-07-06 05:00:00,
2013-07-06 00:01:00,74.3,55.0,30.03,South,180,0.0,0.0,51,0.00,,CLR,0.00,VWS V14.01,2013-07-06 05:01:00,
2013-07-06 00:02:00,74.3,55.0,30.03,SSE,158,0.0,0.0,51,0.00,,CLR,0.00,VWS V14.01,2013-07-06 05:02:00,
2013-07-06 00:04:00,74.1,54.8,30.03,South,180,0.0,0.0,51,0.00,,CLR,0.00,VWS V14.01,2013-07-06 05:04:00,
2013-07-06 00:06:00,74.1,55.4,30.03,South,180,0.0,0.0,52,0.00,,CLR,0.00,VWS V14.01,2013-07-06 05:06:00,
2013-07-06 00:07:00,74.1,55.4,30.03,SSE,158,0.0,0.0,52,0.00,,CLR,0.00,VWS V14.01,2013-07-06 05:07:00,
2013-07-06 00:08:00,74.1,55.4,30.03,SSE,158,1.2,1.2,52,0.00,,CLR,0.00,VWS V14.01,2013-07-06 05:08:00,
2013-07-06 00:10:00,74.1,55.4,30.03,SSE,158,0.0,0.0,52,0.00,,CLR,0.00,VWS V14.01,2013-07-06 05:10:00,
2013-07-06 00:12:00,73.9,55.2,30.03,South,180,0.0,0.0,52,0.00,,CLR,0.00,VWS V14.01,2013-07-06 05:12:00,
2013-07-06 00:13:00,73.9,55.2,30.03,South,180,0.0,0.0,52,0.00,,CLR,0.00,VWS V14.01,2013-07-06 05:13:00,
2013-07-06 00:14:00,74.1,55.4,30.03,South,180,4.8,4.8,52,0.00,,CLR,0.00,VWS V14.01,2013-07-06 05:14:00,
2013-07-06 00:16:00,74.1,55.4,30.03,South,180,0.0,0.0,52,0.00,,CLR,0.00,VWS V14.01,2013-07-06 05:16:00,
2013-07-06 00:18:00,73.7,55.0,30.03,SSE,158,0.0,0.0,52,0.00,,CLR,0.00,VWS V14.01,2013-07-06 05:18:00,
2013-07-06 00:20:00,73.7,55.5,30.03,SSE,158,0.0,6.6,53,0.00,,CLR,0.00,VWS V14.01,2013-07-06 05:20:00,
2013-07-06 00:22:00,73.7,55.5,30.03,SSW,202,0.0,0.0,53,0.00,,CLR,0.00,VWS V14.01,2013-07-06 05:22:00,
2013-07-06 00:24:00,73.7,55.5,30.03,South,180,4.8,4.8,53,0.00,,CLR,0.00,VWS V14.01,2013-07-06 05:24:00,
2013-07-06 00:26:00,73.7,55.5,30.03,SW,225,4.0,4.8,53,0.00,,CLR,0.00,VWS V14.01,2013-07-06 05:26:00,
2013-07-06 00:28:00,73.7,55.5,30.03,SE,135,6.2,6.2,53,0.00,,CLR,0.00,VWS V14.01,2013-07-06 05:28:00,
2013-07-06 00:30:00,73.7,55.5,30.03,SSW,202,0.0,6.2,53,0.00,,CLR,0.00,VWS V14.01,2013-07-06 05:30:00,
2013-07-06 00:32:00,73.5,55.3,30.03,SSE,158,0.0,0.0,53,0.00,,CLR,0.00,VWS V14.01,2013-07-06 05:32:00,
2013-07-06 00:33:00,73.5,55.3,30.03,South,180,0.0,0.0,53,0.00,,CLR,0.00,VWS V14.01,2013-07-06 05:33:00,
2013-07-06 00:34:00,73.5,55.3,30.03,South,180,3.4,3.4,53,0.00,,CLR,0.00,VWS V14.01,2013-07-06 05:34:00,
2013-07-06 00:35:00,73.5,55.3,30.03,South,180,3.4,3.4,53,0.00,,CLR,0.00,VWS V14.01,2013-07-06 05:35:00,
2013-07-06 00:36:00,73.5,55.3,30.03,SSE,158,0.0,3.4,53,0.00,,CLR,0.00,VWS V14.01,2013-07-06 05:36:00,
2013-07-06 00:38:00,73.5,55.3,30.03,SSW,202,0.0,0.0,53,0.00,,CLR,0.00,VWS V14.01,2013-07-06 05:38:00,
2013-07-06 00:40:00,73.5,55.3,30.03,South,180,0.0,2.2,53,0.00,,CLR,0.00,VWS V14.01,2013-07-06 05:40:00,
2013-07-06 00:41:00,73.5,55.3,30.03,South,180,0.0,0.0,53,0.00,,CLR,0.00,VWS V14.01,2013-07-06 05:41:00,
2013-07-06 00:42:00,73.4,55.2,30.03,SSW,202,0.0,1.6,53,0.00,,CLR,0.00,VWS V14.01,2013-07-06 05:42:00,
2013-07-06 00:44:00,73.5,55.3,30.03,SSE,158,0.0,0.0,53,0.00,,CLR,0.00,VWS V14.01,2013-07-06 05:44:00,
2013-07-06 00:46:00,73.5,55.3,30.03,South,180,4.8,4.8,53,0.00,,CLR,0.00,VWS V14.01,2013-07-06 05:46:00,
2013-07-06 00:48:00,73.5,55.3,30.03,North,0,0.0,0.0,53,0.00,,CLR,0.00,VWS V14.01,2013-07-06 05:48:00,
2013-07-06 00:49:00,73.4,55.2,30.03,SSW,202,0.0,0.0,53,0.00,,CLR,0.00,VWS V14.01,2013-07-06 05:49:00,
2013-07-06 00:50:00,73.4,55.2,30.03,SSW,202,5.8,5.8,53,0.00,,CLR,0.00,VWS V14.01,2013-07-06 05:50:00,
2013-07-06 00:51:00,73.4,55.2,30.03,SSW,202,5.8,5.8,53,0.00,,CLR,0.00,VWS V14.01,2013-07-06 05:51:00,
2013-07-06 00:52:00,73.4,55.2,30.03,SSE,158,0.0,5.8,53,0.00,,CLR,0.00,VWS V14.01,2013-07-06 05:52:00,
2013-07-06 00:54:00,73.4,55.2,30.03,South,180,0.0,0.0,53,0.00,,CLR,0.00,VWS V14.01,2013-07-06 05:54:00,
2013-07-06 00:56:00,73.4,55.2,30.03,SSE,158,0.0,0.0,53,0.00,,CLR,0.00,VWS V14.01,2013-07-06 05:56:00,
2013-07-06 00:58:00,73.2,55.1,30.03,SSW,202,0.0,0.0,53,0.00,,CLR,0.00,VWS V14.01,2013-07-06 05:58:00,
2013-07-06 00:59:00,73.0,54.9,30.03,SSE,158,0.0,0.0,53,0.00,,CLR,0.00,VWS V14.01,2013-07-06 05:59:00,
2013-07-06 01:00:00,73.2,55.1,30.03,South,180,0.0,0.0,53,0.00,,CLR,0.00,VWS V14.01,2013-07-06 06:00:00,
2013-07-06 01:02:00,73.2,55.1,30.03,South,180,0.0,0.0,53,0.00,,CLR,0.00,VWS V14.01,2013-07-06 06:02:00,
2013-07-06 01:03:00,73.2,55.1,30.03,South,180,0.0,0.0,53,0.00,,CLR,0.00,VWS V14.01,2013-07-06 06:03:00,
2013-07-06 01:04:00,73.2,55.1,30.03,South,180,0.0,0.0,53,0.00,,CLR,0.00,VWS V14.01,2013-07-06 06:04:00,
2013-07-06 01:05:00,73.2,55.1,30.03,South,180,0.0,0.0,53,0.00,,CLR,0.00,VWS V14.01,2013-07-06 06:05:00,
2013-07-06 01:06:00,72.8,55.2,30.03,South,180,0.0,0.0,54,0.00,,CLR,0.00,VWS V14.01,2013-07-06 06:06:00,
2013-07-06 01:08:00,73.0,55.4,30.03,SW,225,0.0,0.0,54,0.00,,CLR,0.00,VWS V14.01,2013-07-06 06:08:00,
2013-07-06 01:09:00,72.8,55.2,30.03,SW,225,0.0,0.0,54,0.00,,CLR,0.00,VWS V14.01,2013-07-06 06:09:00,
2013-07-06 01:10:00,72.8,55.2,30.03,South,180,0.0,0.0,54,0.00,,CLR,0.00,VWS V14.01,2013-07-06 06:10:00,
2013-07-06 01:11:00,72.8,55.2,30.03,South,180,0.0,0.0,54,0.00,,CLR,0.00,VWS V14.01,2013-07-06 06:11:00,
2013-07-06 01:12:00,72.8,55.2,30.03,SSW,202,0.0,0.0,54,0.00,,CLR,0.00,VWS V14.01,2013-07-06 06:12:00,
2013-07-06 01:13:00,72.8,55.2,30.03,SSW,202,0.0,0.0,54,0.00,,CLR,0.00,VWS V14.01,2013-07-06 06:13:00,
2013-07-06 01:14:00,72.8,55.2,30.03,South,180,0.0,2.6,54,0.00,,CLR,0.00,VWS V14.01,2013-07-06 06:14:00,
2013-07-06 01:15:00,72.8,55.2,30.03,South,180,0.0,0.0,54,0.00,,CLR,0.00,VWS V14.01,2013-07-06 06:15:00,
2013-07-06 01:16:00,72.6,55.0,30.03,South,180,0.0,0.0,54,0.00,,CLR,0.00,VWS V14.01,2013-07-06 06:16:00,
2013-07-06 01:17:00,72.8,55.2,30.03,South,180,0.0,0.0,54,0.00,,CLR,0.00,VWS V14.01,2013-07-06 06:17:00,
2013-07-06 01:18:00,72.6,55.0,30.03,South,180,0.0,0.0,54,0.00,,CLR,0.00,VWS V14.01,2013-07-06 06:18:00,
2013-07-06 01:19:00,72.6,55.0,30.03,South,180,0.0,0.0,54,0.00,,CLR,0.00,VWS V14.01,2013-07-06 06:19:00,
2013-07-06 01:20:00,72.6,55.0,30.02,SSE,158,0.0,0.0,54,0.00,,CLR,0.00,VWS V14.01,2013-07-06 06:20:00,
2013-07-06 01:21:00,72.6,55.0,30.02,SSE,158,0.0,0.0,54,0.00,,CLR,0.00,VWS V14.01,2013-07-06 06:21:00,
2013-07-06 01:22:00,72.5,55.4,30.03,South,180,3.4,3.4,55,0.00,,CLR,0.00,VWS V14.01,2013-07-06 06:22:00,
2013-07-06 01:23:00,72.5,55.4,30.03,South,180,3.4,3.4,55,0.00,,CLR,0.00,VWS V14.01,2013-07-06 06:23:00,
2013-07-06 01:24:00,72.5,55.4,30.03,SSE,158,0.0,3.4,55,0.00,,CLR,0.00,VWS V14.01,2013-07-06 06:24:00,
2013-07-06 01:25:00,72.5,55.4,30.03,SSE,158,0.0,3.4,55,0.00,,CLR,0.00,VWS V14.01,2013-07-06 06:25:00,
2013-07-06 01:26:00,72.5,55.4,30.03,South,180,0.0,0.0,55,0.00,,CLR,0.00,VWS V14.01,2013-07-06 06:26:00,
2013-07-06 01:28:00,72.5,55.4,30.03,South,180,0.0,0.0,55,0.00,,CLR,0.00,VWS V14.01,2013-07-06 06:28:00,
2013-07-06 01:30:00,72.5,55.4,30.03,South,180,0.0,0.0,55,0.00,,CLR,0.00,VWS V14.01,2013-07-06 06:30:00,
2013-07-06 01:31:00,72.5,55.4,30.02,SSE,158,0.0,0.0,55,0.00,,CLR,0.00,VWS V14.01,2013-07-06 06:31:00,
2013-07-06 01:32:00,72.3,55.2,30.03,SSE,158,0.0,2.6,55,0.00,,CLR,0.00,VWS V14.01,2013-07-06 06:32:00,
2013-07-06 01:33:00,72.3,55.2,30.03,SSE,158,0.0,2.6,55,0.00,,CLR,0.00,VWS V14.01,2013-07-06 06:33:00,
2013-07-06 01:34:00,72.3,55.7,30.03,South,180,0.0,0.0,56,0.00,,CLR,0.00,VWS V14.01,2013-07-06 06:34:00,
2013-07-06 01:36:00,72.3,55.7,30.03,South,180,0.0,0.0,56,0.00,,CLR,0.00,VWS V14.01,2013-07-06 06:36:00,
2013-07-06 01:38:00,72.3,55.7,30.03,SSW,202,0.0,0.0,56,0.00,,CLR,0.00,VWS V14.01,2013-07-06 06:38:00,
2013-07-06 01:39:00,72.3,55.7,30.03,South,180,1.6,1.6,56,0.00,,CLR,0.00,VWS V14.01,2013-07-06 06:39:00,
2013-07-06 01:40:00,72.3,55.7,30.03,South,180,0.0,1.6,56,0.00,,CLR,0.00,VWS V14.01,2013-07-06 06:40:00,
2013-07-06 01:41:00,72.3,55.7,30.03,South,180,0.0,0.0,56,0.00,,CLR,0.00,VWS V14.01,2013-07-06 06:41:00,
2013-07-06 01:42:00,72.1,55.6,30.03,SSW,202,4.8,4.8,56,0.00,,CLR,0.00,VWS V14.01,2013-07-06 06:42:00,
2013-07-06 01:44:00,72.3,55.7,30.02,SSW,202,2.2,4.8,56,0.00,,CLR,0.00,VWS V14.01,2013-07-06 06:44:00,
2013-07-06 01:45:00,72.3,55.7,30.02,SSW,202,2.2,4.8,56,0.00,,CLR,0.00,VWS V14.01,2013-07-06 06:45:00,
2013-07-06 01:46:00,72.3,55.7,30.02,South,180,0.0,2.2,56,0.00,,CLR,0.00,VWS V14.01,2013-07-06 06:46:00,
2013-07-06 01:48:00,72.3,55.7,30.02,South,180,4.8,4.8,56,0.00,,CLR,0.00,VWS V14.01,2013-07-06 06:48:00,
2013-07-06 01:50:00,72.3,55.7,30.02,South,180,0.0,4.8,56,0.00,,CLR,0.00,VWS V14.01,2013-07-06 06:50:00,
2013-07-06 01:52:00,72.1,55.6,30.02,South,180,0.0,0.0,56,0.00,,CLR,0.00,VWS V14.01,2013-07-06 06:52:00,
2013-07-06 01:53:00,72.1,55.6,30.02,South,180,0.0,0.0,56,0.00,,CLR,0.00,VWS V14.01,2013-07-06 06:53:00,
2013-07-06 01:54:00,72.1,55.6,30.02,SW,225,0.0,0.0,56,0.00,,CLR,0.00,VWS V14.01,2013-07-06 06:54:00,
2013-07-06 01:56:00,72.1,55.6,30.02,South,180,0.0,0.0,56,0.00,,CLR,0.00,VWS V14.01,2013-07-06 06:56:00,
2013-07-06 01:57:00,72.1,55.6,30.02,South,180,0.0,0.0,56,0.00,,CLR,0.00,VWS V14.01,2013-07-06 06:57:00,
2013-07-06 01:58:00,72.1,55.6,30.02,SSE,158,0.0,0.0,56,0.00,,CLR,0.00,VWS V14.01,2013-07-06 06:58:00,
2013-07-06 01:59:00,71.9,55.4,30.02,South,180,0.0,0.0,56,0.00,,CLR,0.00,VWS V14.01,2013-07-06 06:59:00,
2013-07-06 02:00:00,72.1,55.6,30.02,SSE,158,0.0,0.0,56,0.00,,CLR,0.00,VWS V14.01,2013-07-06 07:00:00,
2013-07-06 02:01:00,72.1,55.6,30.02,SSE,158,0.0,0.0,56,0.00,,CLR,0.00,VWS V14.01,2013-07-06 07:01:00,
2013-07-06 02:02:00,72.1,55.6,30.02,SE,135,0.0,0.0,56,0.00,,CLR,0.00,VWS V14.01,2013-07-06 07:02:00,
2013-07-06 02:03:00,72.1,55.6,30.02,SE,135,0.0,0.0,56,0.00,,CLR,0.00,VWS V14.01,2013-07-06 07:03:00,
2013-07-06 02:04:00,72.1,56.0,30.02,South,180,0.0,0.0,57,0.00,,CLR,0.00,VWS V14.01,2013-07-06 07:04:00,
2013-07-06 02:06:00,72.1,56.0,30.02,South,180,0.0,1.2,57,0.00,,CLR,0.00,VWS V14.01,2013-07-06 07:06:00,
2013-07-06 02:07:00,72.1,56.0,30.02,South,180,0.0,1.2,57,0.00,,CLR,0.00,VWS V14.01,2013-07-06 07:07:00,
2013-07-06 02:08:00,72.1,56.0,30.02,SSE,158,0.0,0.0,57,0.00,,CLR,0.00,VWS V14.01,2013-07-06 07:08:00,
2013-07-06 02:10:00,71.9,55.9,30.02,SSE,158,0.0,0.0,57,0.00,,CLR,0.00,VWS V14.01,2013-07-06 07:10:00,
2013-07-06 02:11:00,72.1,56.0,30.02,SSE,158,0.0,0.0,57,0.00,,CLR,0.00,VWS V14.01,2013-07-06 07:11:00,
2013-07-06 02:12:00,71.9,55.9,30.02,South,180,0.0,0.0,57,0.00,,CLR,0.00,VWS V14.01,2013-07-06 07:12:00,
2013-07-06 02:13:00,71.9,55.9,30.02,South,180,0.0,0.0,57,0.00,,CLR,0.00,VWS V14.01,2013-07-06 07:13:00,
2013-07-06 02:14:00,71.9,55.9,30.02,South,180,0.0,0.0,57,0.00,,CLR,0.00,VWS V14.01,2013-07-06 07:14:00,
2013-07-06 02:15:00,71.9,55.9,30.02,South,180,0.0,0.0,57,0.00,,CLR,0.00,VWS V14.01,2013-07-06 07:15:00,
2013-07-06 02:16:00,71.9,55.9,30.02,South,180,0.0,4.8,57,0.00,,CLR,0.00,VWS V14.01,2013-07-06 07:16:00,
2013-07-06 02:18:00,71.9,55.9,30.02,South,180,0.0,0.0,57,0.00,,CLR,0.00,VWS V14.01,2013-07-06 07:18:00,
2013-07-06 02:19:00,71.9,55.9,30.02,SSE,158,0.0,0.0,57,0.00,,CLR,0.00,VWS V14.01,2013-07-06 07:19:00,
2013-07-06 02:20:00,71.9,55.9,30.03,SSE,158,0.0,0.0,57,0.00,,CLR,0.00,VWS V14.01,2013-07-06 07:20:00,
2013-07-06 02:21:00,71.9,55.9,30.03,SSE,158,0.0,0.0,57,0.00,,CLR,0.00,VWS V14.01,2013-07-06 07:21:00,
2013-07-06 02:22:00,71.9,55.9,30.03,SE,135,0.0,0.0,57,0.00,,CLR,0.00,VWS V14.01,2013-07-06 07:22:00,
2013-07-06 02:23:00,71.9,55.9,30.02,SE,135,0.0,0.0,57,0.00,,CLR,0.00,VWS V14.01,2013-07-06 07:23:00,
2013-07-06 02:24:00,71.9,55.9,30.02,SE,135,0.0,0.0,57,0.00,,CLR,0.00,VWS V14.01,2013-07-06 07:24:00,
2013-07-06 02:25:00,71.9,55.9,30.02,SE,135,0.0,0.0,57,0.00,,CLR,0.00,VWS V14.01,2013-07-06 07:25:00,
2013-07-06 02:26:00,71.9,55.9,30.02,SSE,158,0.0,0.0,57,0.00,,CLR,0.00,VWS V14.01,2013-07-06 07:26:00,
2013-07-06 02:27:00,71.9,55.9,30.02,SSE,158,0.0,0.0,57,0.00,,CLR,0.00,VWS V14.01,2013-07-06 07:27:00,
2013-07-06 02:28:00,71.9,55.9,30.02,South,180,2.6,2.6,57,0.00,,CLR,0.00,VWS V14.01,2013-07-06 07:28:00,
2013-07-06 02:29:00,71.9,55.9,30.02,South,180,2.6,2.6,57,0.00,,CLR,0.00,VWS V14.01,2013-07-06 07:29:00,
2013-07-06 02:30:00,71.9,55.9,30.02,SSW,202,0.0,2.6,57,0.00,,CLR,0.00,VWS V14.01,2013-07-06 07:30:00,
2013-07-06 02:31:00,71.9,55.9,30.02,SSW,202,0.0,2.6,57,0.00,,CLR,0.00,VWS V14.01,2013-07-06 07:31:00,
2013-07-06 02:32:00,71.9,55.9,30.02,South,180,0.0,0.0,57,0.00,,CLR,0.00,VWS V14.01,2013-07-06 07:32:00,
2013-07-06 02:33:00,71.9,55.9,30.02,SW,225,0.0,0.0,57,0.00,,CLR,0.00,VWS V14.01,2013-07-06 07:33:00,
2013-07-06 02:34:00,71.7,55.7,30.02,SW,225,0.0,0.0,57,0.00,,CLR,0.00,VWS V14.01,2013-07-06 07:34:00,
2013-07-06 02:36:00,71.7,55.7,30.02,SW,225,0.0,0.0,57,0.00,,CLR,0.00,VWS V14.01,2013-07-06 07:36:00,
2013-07-06 02:37:00,71.7,55.7,30.02,South,180,0.0,0.0,57,0.00,,CLR,0.00,VWS V14.01,2013-07-06 07:37:00,
2013-07-06 02:38:00,71.7,55.7,30.02,South,180,0.0,0.0,57,0.00,,CLR,0.00,VWS V14.01,2013-07-06 07:38:00,
2013-07-06 02:40:00,71.7,55.7,30.02,West,270,0.0,0.0,57,0.00,,CLR,0.00,VWS V14.01,2013-07-06 07:40:00,
2013-07-06 02:41:00,71.7,55.7,30.02,West,270,0.0,0.0,57,0.00,,CLR,0.00,VWS V14.01,2013-07-06 07:41:00,
2013-07-06 02:42:00,71.7,55.7,30.02,West,270,0.0,0.0,57,0.00,,CLR,0.00,VWS V14.01,2013-07-06 07:42:00,
2013-07-06 02:43:00,71.7,55.7,30.02,West,270,0.0,0.0,57,0.00,,CLR,0.00,VWS V14.01,2013-07-06 07:43:00,
2013-07-06 02:44:00,71.6,55.6,30.03,South,180,0.0,0.0,57,0.00,,CLR,0.00,VWS V14.01,2013-07-06 07:44:00,
2013-07-06 02:46:00,71.4,55.9,30.02,SSE,158,0.0,0.0,58,0.00,,CLR,0.00,VWS V14.01,2013-07-06 07:46:00,
2013-07-06 02:48:00,71.4,55.9,30.02,South,180,0.0,0.0,58,0.00,,CLR,0.00,VWS V14.01,2013-07-06 07:48:00,
2013-07-06 02:50:00,71.2,55.2,30.02,SSE,158,0.0,1.6,57,0.00,,CLR,0.00,VWS V14.01,2013-07-06 07:50:00,
2013-07-06 02:51:00,71.4,55.4,30.02,SSW,202,0.0,0.0,57,0.00,,CLR,0.00,VWS V14.01,2013-07-06 07:51:00,
2013-07-06 02:52:00,71.4,55.4,30.02,South,180,0.0,0.0,57,0.00,,CLR,0.00,VWS V14.01,2013-07-06 07:52:00,
2013-07-06 02:54:00,71.4,55.4,30.02,SSE,158,0.0,0.0,57,0.00,,CLR,0.00,VWS V14.01,2013-07-06 07:54:00,
2013-07-06 02:55:00,71.4,55.4,30.02,SSE,158,0.0,0.0,57,0.00,,CLR,0.00,VWS V14.01,2013-07-06 07:55:00,
2013-07-06 02:56:00,71.4,55.4,30.03,South,180,0.0,0.0,57,0.00,,CLR,0.00,VWS V14.01,2013-07-06 07:56:00,
2013-07-06 02:57:00,71.4,55.4,30.03,South,180,0.0,0.0,57,0.00,,CLR,0.00,VWS V14.01,2013-07-06 07:57:00,
2013-07-06 02:58:00,71.4,55.4,30.03,South,180,0.0,3.4,57,0.00,,CLR,0.00,VWS V14.01,2013-07-06 07:58:00,
2013-07-06 02:59:00,71.4,55.4,30.03,South,180,0.0,3.4,57,0.00,,CLR,0.00,VWS V14.01,2013-07-06 07:59:00,
2013-07-06 03:00:00,71.2,55.2,30.02,SSE,158,0.0,3.0,57,0.00,,CLR,0.00,VWS V14.01,2013-07-06 08:00:00,
2013-07-06 03:01:00,71.2,55.2,30.02,SSE,158,0.0,0.0,57,0.00,,CLR,0.00,VWS V14.01,2013-07-06 08:01:00,
2013-07-06 03:02:00,71.2,55.2,30.03,SSE,158,0.0,0.0,57,0.00,,CLR,0.00,VWS V14.01,2013-07-06 08:02:00,
2013-07-06 03:03:00,71.2,55.2,30.02,SE,135,0.0,0.0,57,0.00,,CLR,0.00,VWS V14.01,2013-07-06 08:03:00,
2013-07-06 03:04:00,71.2,55.2,30.03,South,180,0.0,0.0,57,0.00,,CLR,0.00,VWS V14.01,2013-07-06 08:04:00,
2013-07-06 03:05:00,71.2,55.2,30.03,South,180,0.0,0.0,57,0.00,,CLR,0.00,VWS V14.01,2013-07-06 08:05:00,
2013-07-06 03:06:00,71.2,55.2,30.03,South,180,0.0,0.0,57,0.00,,CLR,0.00,VWS V14.01,2013-07-06 08:06:00,
2013-07-06 03:07:00,71.4,55.4,30.03,South,180,0.0,0.0,57,0.00,,CLR,0.00,VWS V14.01,2013-07-06 08:07:00,
2013-07-06 03:08:00,71.2,55.2,30.02,South,180,3.4,3.4,57,0.00,,CLR,0.00,VWS V14.01,2013-07-06 08:08:00,
2013-07-06 03:10:00,71.2,55.2,30.03,South,180,0.0,3.4,57,0.00,,CLR,0.00,VWS V14.01,2013-07-06 08:10:00,
2013-07-06 03:11:00,71.2,55.2,30.03,South,180,0.0,0.0,57,0.00,,CLR,0.00,VWS V14.01,2013-07-06 08:11:00,
2013-07-06 03:12:00,71.2,55.2,30.03,South,180,0.0,0.0,57,0.00,,CLR,0.00,VWS V14.01,2013-07-06 08:12:00,
2013-07-06 03:13:00,71.2,55.2,30.03,South,180,0.0,0.0,57,0.00,,CLR,0.00,VWS V14.01,2013-07-06 08:13:00,
2013-07-06 03:14:00,71.2,55.2,30.03,South,180,0.0,0.0,57,0.00,,CLR,0.00,VWS V14.01,2013-07-06 08:14:00,
2013-07-06 03:15:00,71.2,55.2,30.03,South,180,0.8,0.8,57,0.00,,CLR,0.00,VWS V14.01,2013-07-06 08:15:00,
2013-07-06 03:16:00,71.2,55.2,30.03,SSE,158,0.0,4.8,57,0.00,,CLR,0.00,VWS V14.01,2013-07-06 08:16:00,
2013-07-06 03:18:00,71.2,55.7,30.03,South,180,0.0,0.0,58,0.00,,CLR,0.00,VWS V14.01,2013-07-06 08:18:00,
2013-07-06 03:19:00,71.2,55.7,30.03,South,180,0.0,0.0,58,0.00,,CLR,0.00,VWS V14.01,2013-07-06 08:19:00,
2013-07-06 03:20:00,71.2,55.7,30.03,South,180,0.0,0.0,58,0.00,,CLR,0.00,VWS V14.01,2013-07-06 08:20:00,
2013-07-06 03:21:00,71.0,55.5,30.03,South,180,0.0,0.0,58,0.00,,CLR,0.00,VWS V14.01,2013-07-06 08:21:00,
2013-07-06 03:22:00,71.2,55.7,30.03,SSE,158,0.0,0.0,58,0.00,,CLR,0.00,VWS V14.01,2013-07-06 08:22:00,
2013-07-06 03:23:00,71.2,55.7,30.03,SSE,158,0.0,0.0,58,0.00,,CLR,0.00,VWS V14.01,2013-07-06 08:23:00,
2013-07-06 03:24:00,71.0,55.5,30.03,South,180,0.0,0.0,58,0.00,,CLR,0.00,VWS V14.01,2013-07-06 08:24:00,
2013-07-06 03:25:00,71.0,55.5,30.03,South,180,0.0,0.0,58,0.00,,CLR,0.00,VWS V14.01,2013-07-06 08:25:00,
2013-07-06 03:26:00,71.0,55.5,30.03,South,180,0.0,0.0,58,0.00,,CLR,0.00,VWS V14.01,2013-07-06 08:26:00,
2013-07-06 03:27:00,71.0,55.5,30.03,South,180,0.0,0.0,58,0.00,,CLR,0.00,VWS V14.01,2013-07-06 08:27:00,
2013-07-06 03:28:00,71.0,55.5,30.03,SSW,202,0.0,0.0,58,0.00,,CLR,0.00,VWS V14.01,2013-07-06 08:28:00,
2013-07-06 03:29:00,71.2,55.7,30.03,SSW,202,0.0,0.0,58,0.00,,CLR,0.00,VWS V14.01,2013-07-06 08:29:00,
2013-07-06 03:30:00,71.0,55.5,30.03,South,180,0.0,0.0,58,0.00,,CLR,0.00,VWS V14.01,2013-07-06 08:30:00,
2013-07-06 03:32:00,71.0,55.5,30.03,South,180,0.0,0.0,58,0.00,,CLR,0.00,VWS V14.01,2013-07-06 08:32:00,
2013-07-06 03:33:00,71.0,55.5,30.03,South,180,0.0,0.0,58,0.00,,CLR,0.00,VWS V14.01,2013-07-06 08:33:00,
2013-07-06 03:34:00,71.0,56.0,30.03,South,180,4.4,4.4,59,0.00,,CLR,0.00,VWS V14.01,2013-07-06 08:34:00,
2013-07-06 03:36:00,71.0,56.0,30.03,SSE,158,4.8,4.8,59,0.00,,CLR,0.00,VWS V14.01,2013-07-06 08:36:00,
2013-07-06 03:37:00,71.0,56.0,30.03,SSE,158,4.8,4.8,59,0.00,,CLR,0.00,VWS V14.01,2013-07-06 08:37:00,
2013-07-06 03:38:00,71.0,56.0,30.03,South,180,6.6,6.6,59,0.00,,CLR,0.00,VWS V14.01,2013-07-06 08:38:00,
2013-07-06 03:39:00,71.0,56.0,30.03,South,180,6.6,6.6,59,0.00,,CLR,0.00,VWS V14.01,2013-07-06 08:39:00,
2013-07-06 03:40:00,71.0,56.0,30.03,SSE,158,2.6,6.6,59,0.00,,CLR,0.00,VWS V14.01,2013-07-06 08:40:00,
2013-07-06 03:41:00,71.0,56.0,30.03,SSE,158,0.0,6.6,59,0.00,,CLR,0.00,VWS V14.01,2013-07-06 08:41:00,
2013-07-06 03:42:00,71.0,56.0,30.03,SE,135,2.6,2.6,59,0.00,,CLR,0.00,VWS V14.01,2013-07-06 08:42:00,
2013-07-06 03:44:00,71.0,56.0,30.03,SE,135,0.0,2.6,59,0.00,,CLR,0.00,VWS V14.01,2013-07-06 08:44:00,
2013-07-06 03:46:00,70.8,55.8,30.03,SE,135,0.0,0.0,59,0.00,,CLR,0.00,VWS V14.01,2013-07-06 08:46:00,
2013-07-06 03:47:00,70.8,55.8,30.03,SSE,158,0.0,0.0,59,0.00,,CLR,0.00,VWS V14.01,2013-07-06 08:47:00,
2013-07-06 03:48:00,70.8,55.8,30.03,South,180,0.0,0.0,59,0.00,,CLR,0.00,VWS V14.01,2013-07-06 08:48:00,
2013-07-06 03:49:00,70.8,55.8,30.03,South,180,0.0,0.0,59,0.00,,CLR,0.00,VWS V14.01,2013-07-06 08:49:00,
2013-07-06 03:50:00,70.8,56.2,30.03,South,180,0.0,0.0,60,0.00,,CLR,0.00,VWS V14.01,2013-07-06 08:50:00,
2013-07-06 03:51:00,70.8,56.2,30.03,South,180,0.0,0.0,60,0.00,,CLR,0.00,VWS V14.01,2013-07-06 08:51:00,
2013-07-06 03:52:00,70.8,56.2,30.02,North,0,0.0,0.0,60,0.00,,CLR,0.00,VWS V14.01,2013-07-06 08:52:00,
2013-07-06 03:53:00,70.8,56.2,30.02,North,0,0.0,0.0,60,0.00,,CLR,0.00,VWS V14.01,2013-07-06 08:53:00,
2013-07-06 03:54:00,70.8,56.2,30.02,South,180,0.0,0.0,60,0.00,,CLR,0.00,VWS V14.01,2013-07-06 08:54:00,
2013-07-06 03:56:00,70.7,56.2,30.03,South,180,0.0,3.4,60,0.00,,CLR,0.00,VWS V14.01,2013-07-06 08:56:00,
2013-07-06 03:57:00,70.7,56.2,30.03,South,180,0.0,3.4,60,0.00,,CLR,0.00,VWS V14.01,2013-07-06 08:57:00,
2013-07-06 03:58:00,70.7,56.2,30.03,SSE,158,0.0,0.0,60,0.00,,CLR,0.00,VWS V14.01,2013-07-06 08:58:00,
2013-07-06 03:59:00,70.7,56.2,30.03,SSW,202,0.0,0.0,60,0.00,,CLR,0.00,VWS V14.01,2013-07-06 08:59:00,
2013-07-06 04:00:00,70.7,56.2,30.03,South,180,0.0,2.6,60,0.00,,CLR,0.00,VWS V14.01,2013-07-06 09:00:00,
2013-07-06 04:01:00,70.7,56.2,30.03,South,180,0.0,0.0,60,0.00,,CLR,0.00,VWS V14.01,2013-07-06 09:01:00,
2013-07-06 04:02:00,70.7,56.2,30.03,South,180,0.0,0.0,60,0.00,,CLR,0.00,VWS V14.01,2013-07-06 09:02:00,
2013-07-06 04:04:00,70.7,56.2,30.03,South,180,0.0,0.0,60,0.00,,CLR,0.00,VWS V14.01,2013-07-06 09:04:00,
2013-07-06 04:05:00,70.7,56.2,30.03,South,180,0.0,0.0,60,0.00,,CLR,0.00,VWS V14.01,2013-07-06 09:05:00,
2013-07-06 04:06:00,70.7,56.2,30.03,SSW,202,0.0,0.0,60,0.00,,CLR,0.00,VWS V14.01,2013-07-06 09:06:00,
2013-07-06 04:08:00,70.5,56.9,30.03,South,180,0.0,0.0,62,0.00,,CLR,0.00,VWS V14.01,2013-07-06 09:08:00,
2013-07-06 04:10:00,70.5,56.4,30.03,South,180,0.0,0.0,61,0.00,,CLR,0.00,VWS V14.01,2013-07-06 09:10:00,
2013-07-06 04:11:00,70.5,56.4,30.03,South,180,0.0,0.0,61,0.00,,CLR,0.00,VWS V14.01,2013-07-06 09:11:00,
2013-07-06 04:12:00,70.5,56.9,30.03,South,180,0.0,0.0,62,0.00,,CLR,0.00,VWS V14.01,2013-07-06 09:12:00,
2013-07-06 04:13:00,70.5,56.9,30.03,South,180,0.0,0.0,62,0.00,,CLR,0.00,VWS V14.01,2013-07-06 09:13:00,
2013-07-06 04:14:00,70.5,56.9,30.03,South,180,0.0,6.6,62,0.00,,CLR,0.00,VWS V14.01,2013-07-06 09:14:00,
2013-07-06 04:15:00,70.5,56.9,30.03,South,180,0.0,6.6,62,0.00,,CLR,0.00,VWS V14.01,2013-07-06 09:15:00,
2013-07-06 04:16:00,70.5,56.9,30.03,South,180,0.0,0.0,62,0.00,,CLR,0.00,VWS V14.01,2013-07-06 09:16:00,
2013-07-06 04:17:00,70.3,56.7,30.03,SE,135,0.0,0.0,62,0.00,,CLR,0.00,VWS V14.01,2013-07-06 09:17:00,
2013-07-06 04:18:00,70.5,57.3,30.03,SSE,158,0.0,6.2,63,0.00,,CLR,0.00,VWS V14.01,2013-07-06 09:18:00,
2013-07-06 04:19:00,70.5,57.3,30.03,SSE,158,0.0,0.0,63,0.00,,CLR,0.00,VWS V14.01,2013-07-06 09:19:00,
2013-07-06 04:20:00,70.3,57.1,30.03,SSW,202,1.6,1.6,63,0.00,,CLR,0.00,VWS V14.01,2013-07-06 09:20:00,
2013-07-06 04:21:00,70.3,57.1,30.03,South,180,7.6,7.6,63,0.00,,CLR,0.00,VWS V14.01,2013-07-06 09:21:00,
2013-07-06 04:22:00,70.3,57.1,30.03,SSW,202,0.0,7.6,63,0.00,,CLR,0.00,VWS V14.01,2013-07-06 09:22:00,
2013-07-06 04:24:00,70.3,57.1,30.03,South,180,0.0,0.0,63,0.00,,CLR,0.00,VWS V14.01,2013-07-06 09:24:00,
2013-07-06 04:25:00,70.3,57.1,30.03,South,180,0.0,0.0,63,0.00,,CLR,0.00,VWS V14.01,2013-07-06 09:25:00,
2013-07-06 04:26:00,70.3,57.1,30.03,South,180,0.0,0.0,63,0.00,,CLR,0.00,VWS V14.01,2013-07-06 09:26:00,
2013-07-06 04:28:00,70.1,57.4,30.03,South,180,0.0,0.0,64,0.00,,CLR,0.00,VWS V14.01,2013-07-06 09:28:00,
2013-07-06 04:30:00,70.1,57.4,30.03,South,180,0.0,0.0,64,0.00,,CLR,0.00,VWS V14.01,2013-07-06 09:30:00,
2013-07-06 04:31:00,70.1,57.4,30.03,South,180,2.2,2.2,64,0.00,,CLR,0.00,VWS V14.01,2013-07-06 09:31:00,
2013-07-06 04:32:00,70.1,57.4,30.03,South,180,0.0,2.2,64,0.00,,CLR,0.00,VWS V14.01,2013-07-06 09:32:00,
2013-07-06 04:34:00,70.1,57.4,30.03,South,180,0.0,0.0,64,0.00,,CLR,0.00,VWS V14.01,2013-07-06 09:34:00,
2013-07-06 04:35:00,70.1,57.4,30.03,South,180,0.0,0.0,64,0.00,,CLR,0.00,VWS V14.01,2013-07-06 09:35:00,
2013-07-06 04:36:00,70.1,57.4,30.03,SSW,202,0.0,0.0,64,0.00,,CLR,0.00,VWS V14.01,2013-07-06 09:36:00,
2013-07-06 04:37:00,70.1,57.4,30.03,SSW,202,0.0,0.0,64,0.00,,CLR,0.00,VWS V14.01,2013-07-06 09:37:00,
2013-07-06 04:38:00,70.1,57.4,30.03,SSW,202,0.0,0.0,64,0.00,,CLR,0.00,VWS V14.01,2013-07-06 09:38:00,
2013-07-06 04:40:00,69.9,57.6,30.03,South,180,0.0,0.0,65,0.00,,CLR,0.00,VWS V14.01,2013-07-06 09:40:00,
2013-07-06 04:42:00,69.9,57.6,30.03,South,180,0.0,0.0,65,0.00,,CLR,0.00,VWS V14.01,2013-07-06 09:42:00,
2013-07-06 04:43:00,69.9,57.6,30.03,SSE,158,0.0,0.0,65,0.00,,CLR,0.00,VWS V14.01,2013-07-06 09:43:00,
2013-07-06 04:44:00,69.9,57.6,30.03,SSE,158,0.0,0.0,65,0.00,,CLR,0.00,VWS V14.01,2013-07-06 09:44:00,
2013-07-06 04:46:00,69.9,57.6,30.03,South,180,0.0,3.0,65,0.00,,CLR,0.00,VWS V14.01,2013-07-06 09:46:00,
2013-07-06 04:48:00,69.9,58.0,30.03,SSE,158,0.0,1.2,66,0.00,,CLR,0.00,VWS V14.01,2013-07-06 09:48:00,
2013-07-06 04:49:00,69.9,58.0,30.03,SSE,158,0.0,1.2,66,0.00,,CLR,0.00,VWS V14.01,2013-07-06 09:49:00,
2013-07-06 04:50:00,69.8,57.9,30.03,South,180,0.0,0.0,66,0.00,,CLR,0.00,VWS V14.01,2013-07-06 09:50:00,
2013-07-06 04:51:00,69.8,57.9,30.03,South,180,0.0,0.0,66,0.00,,CLR,0.00,VWS V14.01,2013-07-06 09:51:00,
2013-07-06 04:52:00,69.8,57.9,30.03,South,180,5.2,5.2,66,0.00,,CLR,0.00,VWS V14.01,2013-07-06 09:52:00,
2013-07-06 04:54:00,69.8,57.9,30.03,South,180,0.0,5.2,66,0.00,,CLR,0.00,VWS V14.01,2013-07-06 09:54:00,
2013-07-06 04:55:00,69.8,57.9,30.03,South,180,0.0,5.2,66,0.00,,CLR,0.00,VWS V14.01,2013-07-06 09:55:00,
2013-07-06 04:56:00,69.8,58.4,30.03,South,180,0.0,0.0,67,0.00,,CLR,0.00,VWS V14.01,2013-07-06 09:56:00,
2013-07-06 04:57:00,69.6,58.2,30.03,South,180,0.0,0.0,67,0.00,,CLR,0.00,VWS V14.01,2013-07-06 09:57:00,
2013-07-06 04:58:00,69.6,58.2,30.03,SSE,158,0.0,0.0,67,0.00,,CLR,0.00,VWS V14.01,2013-07-06 09:58:00,
2013-07-06 04:59:00,69.6,58.2,30.03,SSE,158,0.0,0.0,67,0.00,,CLR,0.00,VWS V14.01,2013-07-06 09:59:00,
2013-07-06 05:00:00,69.6,58.2,30.03,South,180,0.0,0.0,67,0.00,,CLR,0.00,VWS V14.01,2013-07-06 10:00:00,
2013-07-06 05:01:00,69.6,58.2,30.04,South,180,0.0,0.0,67,0.00,,CLR,0.00,VWS V14.01,2013-07-06 10:01:00,
2013-07-06 05:02:00,69.8,58.4,30.04,SSE,158,0.0,0.0,67,0.00,,CLR,0.00,VWS V14.01,2013-07-06 10:02:00,
2013-07-06 05:04:00,69.6,58.6,30.03,South,180,0.0,0.0,68,0.00,,CLR,0.00,VWS V14.01,2013-07-06 10:04:00,
2013-07-06 05:05:00,69.6,58.6,30.03,South,180,0.0,0.0,68,0.00,,CLR,0.00,VWS V14.01,2013-07-06 10:05:00,
2013-07-06 05:06:00,69.4,58.4,30.03,South,180,0.0,0.0,68,0.00,,CLR,0.00,VWS V14.01,2013-07-06 10:06:00,
2013-07-06 05:07:00,69.4,58.4,30.03,South,180,10.2,10.2,68,0.00,,CLR,0.00,VWS V14.01,2013-07-06 10:07:00,
2013-07-06 05:08:00,69.4,58.4,30.03,SE,135,0.0,10.2,68,0.00,,CLR,0.00,VWS V14.01,2013-07-06 10:08:00,
2013-07-06 05:10:00,69.6,58.6,30.03,SSE,158,5.8,5.8,68,0.00,,CLR,0.00,VWS V14.01,2013-07-06 10:10:00,
2013-07-06 05:11:00,69.6,58.6,30.03,SSE,158,5.8,5.8,68,0.00,,CLR,0.00,VWS V14.01,2013-07-06 10:11:00,
2013-07-06 05:12:00,69.2,58.2,30.03,SSE,158,0.0,5.8,68,0.00,,CLR,0.00,VWS V14.01,2013-07-06 10:12:00,
2013-07-06 05:13:00,69.2,58.2,30.03,SSE,158,0.0,5.8,68,0.00,,CLR,0.00,VWS V14.01,2013-07-06 10:13:00,
2013-07-06 05:14:00,69.4,58.4,30.03,South,180,0.0,0.0,68,0.00,,CLR,0.00,VWS V14.01,2013-07-06 10:14:00,
2013-07-06 05:15:00,69.4,58.4,30.03,South,180,0.0,0.0,68,0.00,,CLR,0.00,VWS V14.01,2013-07-06 10:15:00,
2013-07-06 05:16:00,69.2,58.2,30.03,South,180,0.0,0.0,68,0.00,,CLR,0.00,VWS V14.01,2013-07-06 10:16:00,
2013-07-06 05:18:00,69.2,58.2,30.03,South,180,0.0,0.0,68,0.00,,CLR,0.00,VWS V14.01,2013-07-06 10:18:00,
2013-07-06 05:19:00,69.2,58.2,30.03,South,180,0.0,0.0,68,0.00,,CLR,0.00,VWS V14.01,2013-07-06 10:19:00,
2013-07-06 05:20:00,69.2,58.2,30.03,South,180,0.0,0.0,68,0.00,,CLR,0.00,VWS V14.01,2013-07-06 10:20:00,
2013-07-06 05:21:00,69.2,58.2,30.03,South,180,0.0,0.0,68,0.00,,CLR,0.00,VWS V14.01,2013-07-06 10:21:00,
2013-07-06 05:22:00,69.2,58.2,30.03,South,180,0.0,0.0,68,0.00,,CLR,0.00,VWS V14.01,2013-07-06 10:22:00,
2013-07-06 05:23:00,69.2,58.2,30.03,South,180,0.0,0.0,68,0.00,,CLR,0.00,VWS V14.01,2013-07-06 10:23:00,
2013-07-06 05:24:00,69.2,58.2,30.03,SSE,158,0.0,0.0,68,0.00,,CLR,0.00,VWS V14.01,2013-07-06 10:24:00,
2013-07-06 05:25:00,69.2,58.2,30.03,SSE,158,0.0,0.0,68,0.00,,CLR,0.00,VWS V14.01,2013-07-06 10:25:00,
2013-07-06 05:26:00,69.2,58.6,30.03,South,180,0.0,0.0,69,0.00,,CLR,0.00,VWS V14.01,2013-07-06 10:26:00,
2013-07-06 05:27:00,69.2,58.6,30.03,South,180,0.0,0.0,69,0.00,,CLR,0.00,VWS V14.01,2013-07-06 10:27:00,
2013-07-06 05:28:00,69.2,58.6,30.03,South,180,0.0,0.0,69,0.00,,CLR,0.00,VWS V14.01,2013-07-06 10:28:00,
2013-07-06 05:29:00,69.2,58.6,30.03,South,180,0.0,0.0,69,0.00,,CLR,0.00,VWS V14.01,2013-07-06 10:29:00,
2013-07-06 05:30:00,69.0,58.4,30.03,South,180,0.0,0.0,69,0.00,,CLR,0.00,VWS V14.01,2013-07-06 10:30:00,
2013-07-06 05:31:00,69.0,58.4,30.03,South,180,0.0,0.0,69,0.00,,CLR,0.00,VWS V14.01,2013-07-06 10:31:00,
2013-07-06 05:32:00,69.2,58.6,30.03,South,180,0.0,0.0,69,0.00,,CLR,0.00,VWS V14.01,2013-07-06 10:32:00,
2013-07-06 05:33:00,69.2,58.6,30.03,South,180,0.0,0.0,69,0.00,,CLR,0.00,VWS V14.01,2013-07-06 10:33:00,
2013-07-06 05:34:00,69.0,58.4,30.03,South,180,0.0,0.0,69,0.00,,CLR,0.00,VWS V14.01,2013-07-06 10:34:00,
2013-07-06 05:35:00,69.0,58.4,30.03,South,180,0.0,0.0,69,0.00,,CLR,0.00,VWS V14.01,2013-07-06 10:35:00,
2013-07-06 05:36:00,69.0,58.4,30.03,South,180,0.0,0.0,69,0.00,,CLR,0.00,VWS V14.01,2013-07-06 10:36:00,
2013-07-06 05:38:00,69.0,58.4,30.03,South,180,0.0,0.0,69,0.00,,CLR,0.00,VWS V14.01,2013-07-06 10:38:00,
2013-07-06 05:39:00,69.0,58.4,30.03,SSE,158,0.0,0.0,69,0.00,,CLR,0.00,VWS V14.01,2013-07-06 10:39:00,
2013-07-06 05:40:00,68.9,58.3,30.03,South,180,0.0,0.0,69,0.00,,CLR,0.00,VWS V14.01,2013-07-06 10:40:00,
2013-07-06 05:41:00,68.9,58.7,30.03,SSW,202,0.0,0.0,70,0.00,,CLR,0.00,VWS V14.01,2013-07-06 10:41:00,
2013-07-06 05:42:00,68.9,58.7,30.03,South,180,0.0,0.0,70,0.00,,CLR,0.00,VWS V14.01,2013-07-06 10:42:00,
2013-07-06 05:44:00,68.9,58.7,30.03,South,180,5.8,5.8,70,0.00,,CLR,0.00,VWS V14.01,2013-07-06 10:44:00,
2013-07-06 05:46:00,68.9,58.7,30.03,SSE,158,0.0,0.0,70,0.00,,CLR,0.00,VWS V14.01,2013-07-06 10:46:00,
2013-07-06 05:47:00,68.9,58.7,30.03,SSW,202,0.0,0.0,70,0.00,,CLR,0.00,VWS V14.01,2013-07-06 10:47:00,
2013-07-06 05:48:00,68.9,58.7,30.03,South,180,0.0,0.0,70,0.00,,CLR,0.00,VWS V14.01,2013-07-06 10:48:00,
2013-07-06 05:50:00,68.9,58.7,30.03,SSE,158,0.0,0.0,70,0.00,,CLR,0.00,VWS V14.01,2013-07-06 10:50:00,
2013-07-06 05:51:00,68.9,58.7,30.03,SSE,158,0.0,0.0,70,0.00,,CLR,0.00,VWS V14.01,2013-07-06 10:51:00,
2013-07-06 05:52:00,68.9,59.1,30.03,SSE,158,3.0,3.0,71,0.00,,CLR,0.00,VWS V14.01,2013-07-06 10:52:00,
2013-07-06 05:53:00,68.9,58.7,30.03,SSE,158,0.0,3.0,70,0.00,,CLR,0.00,VWS V14.01,2013-07-06 10:53:00,
2013-07-06 05:54:00,68.9,58.7,30.03,South,180,2.2,4.8,70,0.00,,CLR,0.00,VWS V14.01,2013-07-06 10:54:00,
2013-07-06 05:55:00,68.9,58.7,30.03,South,180,2.2,2.2,70,0.00,,CLR,0.00,VWS V14.01,2013-07-06 10:55:00,
2013-07-06 05:56:00,68.9,59.5,30.03,South,180,2.6,2.6,72,0.00,,CLR,0.00,VWS V14.01,2013-07-06 10:56:00,
2013-07-06 05:57:00,68.9,59.5,30.03,South,180,2.6,2.6,72,0.00,,CLR,0.00,VWS V14.01,2013-07-06 10:57:00,
2013-07-06 05:58:00,68.7,58.9,30.03,SSE,158,0.0,2.6,71,0.00,,CLR,0.00,VWS V14.01,2013-07-06 10:58:00,
2013-07-06 05:59:00,68.7,58.9,30.03,SSE,158,0.0,2.6,71,0.00,,CLR,0.00,VWS V14.01,2013-07-06 10:59:00,
2013-07-06 06:00:00,68.7,59.3,30.03,SSE,158,0.0,0.0,72,0.00,,CLR,0.00,VWS V14.01,2013-07-06 11:00:00,
2013-07-06 06:01:00,68.7,59.3,30.03,SSE,158,0.0,0.0,72,0.00,,CLR,0.00,VWS V14.01,2013-07-06 11:01:00,
2013-07-06 06:02:00,68.9,59.5,30.03,SSE,158,0.0,0.0,72,0.00,,CLR,0.00,VWS V14.01,2013-07-06 11:02:00,
2013-07-06 06:04:00,68.7,59.3,30.03,South,180,0.0,0.0,72,0.00,,CLR,0.00,VWS V14.01,2013-07-06 11:04:00,
2013-07-06 06:05:00,68.7,59.3,30.03,SSE,158,0.0,0.0,72,0.00,,CLR,0.00,VWS V14.01,2013-07-06 11:05:00,
2013-07-06 06:06:00,68.7,59.3,30.03,SSE,158,0.0,0.0,72,0.00,,CLR,0.00,VWS V14.01,2013-07-06 11:06:00,
2013-07-06 06:07:00,68.7,59.3,30.03,SSE,158,0.0,0.0,72,0.00,,CLR,0.00,VWS V14.01,2013-07-06 11:07:00,
2013-07-06 06:08:00,68.7,59.3,30.03,SSW,202,0.0,0.0,72,0.00,,CLR,0.00,VWS V14.01,2013-07-06 11:08:00,
2013-07-06 06:10:00,68.7,59.3,30.03,South,180,0.0,3.4,72,0.00,,CLR,0.00,VWS V14.01,2013-07-06 11:10:00,
2013-07-06 06:11:00,68.7,59.3,30.03,South,180,0.0,3.4,72,0.00,,CLR,0.00,VWS V14.01,2013-07-06 11:11:00,
2013-07-06 06:12:00,68.7,59.3,30.03,South,180,0.0,0.0,72,0.00,,CLR,0.00,VWS V14.01,2013-07-06 11:12:00,
2013-07-06 06:14:00,68.7,59.3,30.03,South,180,0.0,0.0,72,0.00,,CLR,0.00,VWS V14.01,2013-07-06 11:14:00,
2013-07-06 06:15:00,68.7,59.3,30.03,South,180,0.0,0.0,72,0.00,,CLR,0.00,VWS V14.01,2013-07-06 11:15:00,
2013-07-06 06:16:00,68.5,59.1,30.02,SSE,158,1.6,1.6,72,0.00,,CLR,0.00,VWS V14.01,2013-07-06 11:16:00,
2013-07-06 06:17:00,68.5,59.1,30.02,SSE,158,1.6,1.6,72,0.00,,CLR,0.00,VWS V14.01,2013-07-06 11:17:00,
2013-07-06 06:18:00,68.5,59.1,30.02,South,180,0.0,1.6,72,0.00,,CLR,0.00,VWS V14.01,2013-07-06 11:18:00,
2013-07-06 06:20:00,68.3,58.9,30.03,South,180,0.0,0.0,72,0.00,,CLR,0.00,VWS V14.01,2013-07-06 11:20:00,
2013-07-06 06:21:00,68.5,59.1,30.03,South,180,0.0,0.0,72,0.00,,CLR,0.00,VWS V14.01,2013-07-06 11:21:00,
2013-07-06 06:22:00,68.5,59.5,30.03,South,180,0.0,0.0,73,0.00,,CLR,0.00,VWS V14.01,2013-07-06 11:22:00,
2013-07-06 06:24:00,68.7,59.7,30.03,South,180,0.0,0.0,73,0.00,,CLR,0.00,VWS V14.01,2013-07-06 11:24:00,
2013-07-06 06:26:00,68.5,59.5,30.03,SSE,158,0.0,0.0,73,0.00,,CLR,0.00,VWS V14.01,2013-07-06 11:26:00,
2013-07-06 06:27:00,68.5,59.5,30.03,SSE,158,0.0,0.0,73,0.00,,CLR,0.00,VWS V14.01,2013-07-06 11:27:00,
2013-07-06 06:28:00,68.5,59.5,30.03,SSE,158,0.0,0.0,73,0.00,,CLR,0.00,VWS V14.01,2013-07-06 11:28:00,
2013-07-06 06:29:00,68.5,59.5,30.03,SSE,158,0.0,0.0,73,0.00,,CLR,0.00,VWS V14.01,2013-07-06 11:29:00,
2013-07-06 06:30:00,68.5,59.5,30.03,SSE,158,0.0,0.0,73,0.00,,CLR,0.00,VWS V14.01,2013-07-06 11:30:00,
2013-07-06 06:31:00,68.5,59.5,30.03,SSE,158,0.0,0.0,73,0.00,,CLR,0.00,VWS V14.01,2013-07-06 11:31:00,
2013-07-06 06:32:00,68.5,59.5,30.03,South,180,0.0,0.0,73,0.00,,CLR,0.00,VWS V14.01,2013-07-06 11:32:00,
2013-07-06 06:33:00,68.7,59.7,30.03,South,180,0.0,0.0,73,0.00,,CLR,0.00,VWS V14.01,2013-07-06 11:33:00,
2013-07-06 06:34:00,68.7,59.7,30.03,SSW,202,0.0,0.0,73,0.00,,CLR,0.00,VWS V14.01,2013-07-06 11:34:00,
2013-07-06 06:36:00,68.7,59.7,30.03,SSW,202,0.0,0.0,73,0.00,,CLR,0.00,VWS V14.01,2013-07-06 11:36:00,
2013-07-06 06:37:00,68.7,59.7,30.03,SSW,202,0.0,0.0,73,0.00,,CLR,0.00,VWS V14.01,2013-07-06 11:37:00,
2013-07-06 06:38:00,68.7,59.7,30.03,South,180,0.0,0.0,73,0.00,,CLR,0.00,VWS V14.01,2013-07-06 11:38:00,
2013-07-06 06:39:00,68.9,59.9,30.03,South,180,0.0,0.0,73,0.00,,CLR,0.00,VWS V14.01,2013-07-06 11:39:00,
2013-07-06 06:40:00,68.7,59.7,30.03,South,180,0.0,0.0,73,0.00,,CLR,0.00,VWS V14.01,2013-07-06 11:40:00,
2013-07-06 06:41:00,68.9,59.9,30.03,SSE,158,0.0,0.0,73,0.00,,CLR,0.00,VWS V14.01,2013-07-06 11:41:00,
2013-07-06 06:42:00,68.9,60.3,30.03,South,180,0.0,0.0,74,0.00,,CLR,0.00,VWS V14.01,2013-07-06 11:42:00,
2013-07-06 06:43:00,68.9,60.3,30.03,South,180,0.0,0.0,74,0.00,,CLR,0.00,VWS V14.01,2013-07-06 11:43:00,
2013-07-06 06:44:00,68.9,59.9,30.03,South,180,0.0,0.0,73,0.00,,CLR,0.00,VWS V14.01,2013-07-06 11:44:00,
2013-07-06 06:45:00,68.9,59.9,30.03,South,180,0.0,0.0,73,0.00,,CLR,0.00,VWS V14.01,2013-07-06 11:45:00,
2013-07-06 06:46:00,68.9,59.9,30.03,SSW,202,0.0,0.0,73,0.00,,CLR,0.00,VWS V14.01,2013-07-06 11:46:00,
2013-07-06 06:48:00,69.0,60.0,30.03,South,180,0.0,0.0,73,0.00,,CLR,0.00,VWS V14.01,2013-07-06 11:48:00,
2013-07-06 06:49:00,69.0,60.0,30.03,South,180,0.0,0.0,73,0.00,,CLR,0.00,VWS V14.01,2013-07-06 11:49:00,
2013-07-06 06:50:00,69.0,60.0,30.03,SSE,158,0.0,0.0,73,0.00,,CLR,0.00,VWS V14.01,2013-07-06 11:50:00,
2013-07-06 06:51:00,69.0,60.0,30.03,SSE,158,0.0,0.0,73,0.00,,CLR,0.00,VWS V14.01,2013-07-06 11:51:00,
2013-07-06 06:52:00,69.0,60.0,30.03,SSE,158,0.0,0.0,73,0.00,,CLR,0.00,VWS V14.01,2013-07-06 11:52:00,
2013-07-06 06:53:00,69.0,60.0,30.03,SSE,158,0.0,0.0,73,0.00,,CLR,0.00,VWS V14.01,2013-07-06 11:53:00,
2013-07-06 06:54:00,69.2,60.2,30.03,SSE,158,0.0,0.0,73,0.00,,CLR,0.00,VWS V14.01,2013-07-06 11:54:00,
2013-07-06 06:55:00,69.2,60.2,30.03,SSE,158,0.0,0.0,73,0.00,,CLR,0.00,VWS V14.01,2013-07-06 11:55:00,
2013-07-06 06:56:00,69.4,60.4,30.03,SSE,158,0.0,0.0,73,0.00,,CLR,0.00,VWS V14.01,2013-07-06 11:56:00,
2013-07-06 06:57:00,69.4,60.4,30.03,SSW,202,0.0,0.0,73,0.00,,CLR,0.00,VWS V14.01,2013-07-06 11:57:00,
2013-07-06 06:58:00,69.4,60.4,30.03,South,180,0.0,0.0,73,0.00,,CLR,0.00,VWS V14.01,2013-07-06 11:58:00,
2013-07-06 07:00:00,69.8,60.8,30.03,SSE,158,0.0,0.0,73,0.00,,CLR,0.00,VWS V14.01,2013-07-06 12:00:00,
2013-07-06 07:02:00,69.6,60.6,30.03,SSE,158,0.0,0.0,73,0.00,,CLR,0.00,VWS V14.01,2013-07-06 12:02:00,
2013-07-06 07:03:00,69.6,60.6,30.03,SE,135,0.0,0.0,73,0.00,,CLR,0.00,VWS V14.01,2013-07-06 12:03:00,
2013-07-06 07:04:00,69.6,60.6,30.03,South,180,0.0,0.0,73,0.00,,CLR,0.00,VWS V14.01,2013-07-06 12:04:00,
2013-07-06 07:05:00,69.9,60.9,30.03,South,180,0.0,0.0,73,0.00,,CLR,0.00,VWS V14.01,2013-07-06 12:05:00,
2013-07-06 07:06:00,69.9,60.9,30.03,South,180,0.0,0.0,73,0.00,,CLR,0.00,VWS V14.01,2013-07-06 12:06:00,
2013-07-06 07:08:00,69.9,60.5,30.03,South,180,0.0,0.0,72,0.00,,CLR,0.00,VWS V14.01,2013-07-06 12:08:00,
2013-07-06 07:09:00,69.9,60.5,30.03,South,180,0.0,0.0,72,0.00,,CLR,0.00,VWS V14.01,2013-07-06 12:09:00,
2013-07-06 07:10:00,69.9,60.5,30.03,South,180,0.0,0.0,72,0.00,,CLR,0.00,VWS V14.01,2013-07-06 12:10:00,
2013-07-06 07:11:00,70.1,60.7,30.03,South,180,0.0,0.0,72,0.00,,CLR,0.00,VWS V14.01,2013-07-06 12:11:00,
2013-07-06 07:12:00,70.1,60.7,30.03,South,180,0.0,0.0,72,0.00,,CLR,0.00,VWS V14.01,2013-07-06 12:12:00,
2013-07-06 07:14:00,70.1,60.7,30.03,SSE,158,0.0,0.0,72,0.00,,CLR,0.00,VWS V14.01,2013-07-06 12:14:00,
2013-07-06 07:15:00,70.1,60.7,30.03,SSE,158,0.0,0.0,72,0.00,,CLR,0.00,VWS V14.01,2013-07-06 12:15:00,
2013-07-06 07:16:00,70.3,60.9,30.03,SE,135,0.0,0.0,72,0.00,,CLR,0.00,VWS V14.01,2013-07-06 12:16:00,
2013-07-06 07:17:00,70.3,60.9,30.03,SE,135,0.0,0.0,72,0.00,,CLR,0.00,VWS V14.01,2013-07-06 12:17:00,
2013-07-06 07:18:00,70.5,61.0,30.03,SSE,158,0.0,0.0,72,0.00,,CLR,0.00,VWS V14.01,2013-07-06 12:18:00,
2013-07-06 07:19:00,70.5,61.0,30.03,SSE,158,0.0,0.0,72,0.00,,CLR,0.00,VWS V14.01,2013-07-06 12:19:00,
2013-07-06 07:20:00,70.5,61.0,30.03,South,180,0.0,0.0,72,0.00,,CLR,0.00,VWS V14.01,2013-07-06 12:20:00,
2013-07-06 07:21:00,70.5,61.0,30.03,South,180,0.0,0.0,72,0.00,,CLR,0.00,VWS V14.01,2013-07-06 12:21:00,
2013-07-06 07:22:00,70.5,61.0,30.03,South,180,1.2,1.2,72,0.00,,CLR,0.00,VWS V14.01,2013-07-06 12:22:00,
2013-07-06 07:23:00,70.5,61.0,30.03,SSE,158,0.0,1.2,72,0.00,,CLR,0.00,VWS V14.01,2013-07-06 12:23:00,
2013-07-06 07:24:00,70.7,60.8,30.03,South,180,0.0,0.0,71,0.00,,CLR,0.00,VWS V14.01,2013-07-06 12:24:00,
2013-07-06 07:25:00,70.7,60.8,30.03,South,180,0.0,0.0,71,0.00,,CLR,0.00,VWS V14.01,2013-07-06 12:25:00,
2013-07-06 07:26:00,70.7,60.8,30.03,South,180,0.0,0.0,71,0.00,,CLR,0.00,VWS V14.01,2013-07-06 12:26:00,
2013-07-06 07:27:00,70.7,60.5,30.03,South,180,0.0,0.0,70,0.00,,CLR,0.00,VWS V14.01,2013-07-06 12:27:00,
2013-07-06 07:28:00,70.7,60.5,30.03,SSE,158,0.0,0.0,70,0.00,,CLR,0.00,VWS V14.01,2013-07-06 12:28:00,
2013-07-06 07:29:00,70.8,60.5,30.03,SSW,202,0.0,0.0,70,0.00,,CLR,0.00,VWS V14.01,2013-07-06 12:29:00,
2013-07-06 07:30:00,70.8,60.5,30.03,SSW,202,0.0,0.0,70,0.00,,CLR,0.00,VWS V14.01,2013-07-06 12:30:00,
2013-07-06 07:32:00,71.0,60.7,30.03,South,180,0.0,0.0,70,0.00,,CLR,0.00,VWS V14.01,2013-07-06 12:32:00,
2013-07-06 07:33:00,71.0,60.7,30.03,South,180,0.0,0.0,70,0.00,,CLR,0.00,VWS V14.01,2013-07-06 12:33:00,
2013-07-06 07:34:00,71.0,60.7,30.03,SSW,202,0.0,0.0,70,0.00,,CLR,0.00,VWS V14.01,2013-07-06 12:34:00,
2013-07-06 07:35:00,71.0,60.7,30.03,SSW,202,0.0,0.0,70,0.00,,CLR,0.00,VWS V14.01,2013-07-06 12:35:00,
2013-07-06 07:36:00,71.0,60.7,30.03,SSW,202,0.0,0.0,70,0.00,,CLR,0.00,VWS V14.01,2013-07-06 12:36:00,
2013-07-06 07:38:00,71.0,60.7,30.03,South,180,0.0,0.0,70,0.00,,CLR,0.00,VWS V14.01,2013-07-06 12:38:00,
2013-07-06 07:40:00,71.2,60.9,30.03,South,180,0.0,0.0,70,0.00,,CLR,0.00,VWS V14.01,2013-07-06 12:40:00,
2013-07-06 07:41:00,71.2,60.9,30.03,South,180,0.0,0.0,70,0.00,,CLR,0.00,VWS V14.01,2013-07-06 12:41:00,
2013-07-06 07:42:00,71.2,60.9,30.03,South,180,0.0,0.0,70,0.00,,CLR,0.00,VWS V14.01,2013-07-06 12:42:00,
2013-07-06 07:43:00,71.2,60.9,30.03,South,180,0.0,0.0,70,0.00,,CLR,0.00,VWS V14.01,2013-07-06 12:43:00,
2013-07-06 07:44:00,71.2,60.9,30.03,South,180,0.0,0.0,70,0.00,,CLR,0.00,VWS V14.01,2013-07-06 12:44:00,
2013-07-06 07:46:00,71.2,60.9,30.03,SSW,202,0.0,3.0,70,0.00,,CLR,0.00,VWS V14.01,2013-07-06 12:46:00,
2013-07-06 07:48:00,71.6,61.3,30.03,SSW,202,0.0,0.0,70,0.00,,CLR,0.00,VWS V14.01,2013-07-06 12:48:00,
2013-07-06 07:50:00,71.6,61.3,30.03,South,180,0.0,0.0,70,0.00,,CLR,0.00,VWS V14.01,2013-07-06 12:50:00,
2013-07-06 07:51:00,71.6,61.3,30.03,South,180,0.0,0.0,70,0.00,,CLR,0.00,VWS V14.01,2013-07-06 12:51:00,
2013-07-06 07:52:00,71.7,61.4,30.03,South,180,0.0,0.0,70,0.00,,CLR,0.00,VWS V14.01,2013-07-06 12:52:00,
2013-07-06 07:53:00,71.7,61.4,30.03,South,180,0.0,0.0,70,0.00,,CLR,0.00,VWS V14.01,2013-07-06 12:53:00,
2013-07-06 07:54:00,71.7,61.4,30.03,South,180,0.0,0.0,70,0.00,,CLR,0.00,VWS V14.01,2013-07-06 12:54:00,
2013-07-06 07:56:00,71.9,61.6,30.03,SSW,202,0.0,0.0,70,0.00,,CLR,0.00,VWS V14.01,2013-07-06 12:56:00,
2013-07-06 07:57:00,71.7,61.4,30.03,South,180,0.0,0.0,70,0.00,,CLR,0.00,VWS V14.01,2013-07-06 12:57:00,
2013-07-06 07:58:00,71.9,61.6,30.03,South,180,2.2,2.2,70,0.00,,CLR,0.00,VWS V14.01,2013-07-06 12:58:00,
2013-07-06 08:00:00,71.9,61.2,30.03,South,180,7.6,7.6,69,0.00,,CLR,0.00,VWS V14.01,2013-07-06 13:00:00,
2013-07-06 08:01:00,71.9,61.2,30.03,South,180,7.6,7.6,69,0.00,,CLR,0.00,VWS V14.01,2013-07-06 13:01:00,
2013-07-06 08:02:00,71.9,61.2,30.03,South,180,0.0,7.6,69,0.00,,CLR,0.00,VWS V14.01,2013-07-06 13:02:00,
2013-07-06 08:04:00,72.1,61.4,30.03,SSE,158,0.0,2.6,69,0.00,,CLR,0.00,VWS V14.01,2013-07-06 13:04:00,
2013-07-06 08:06:00,72.3,61.6,30.03,South,180,0.0,0.0,69,0.00,,CLR,0.00,VWS V14.01,2013-07-06 13:06:00,
2013-07-06 08:07:00,72.3,61.6,30.03,South,180,0.0,0.0,69,0.00,,CLR,0.00,VWS V14.01,2013-07-06 13:07:00,
2013-07-06 08:08:00,72.3,61.6,30.03,South,180,0.0,0.0,69,0.00,,CLR,0.00,VWS V14.01,2013-07-06 13:08:00,
2013-07-06 08:10:00,72.3,61.6,30.03,South,180,0.0,0.0,69,0.00,,CLR,0.00,VWS V14.01,2013-07-06 13:10:00,
2013-07-06 08:12:00,72.3,61.6,30.03,SW,225,0.0,0.0,69,0.00,,CLR,0.00,VWS V14.01,2013-07-06 13:12:00,
2013-07-06 08:13:00,72.3,61.6,30.03,SW,225,0.0,0.0,69,0.00,,CLR,0.00,VWS V14.01,2013-07-06 13:13:00,
2013-07-06 08:14:00,72.1,61.4,30.03,WSW,248,0.0,0.0,69,0.00,,CLR,0.00,VWS V14.01,2013-07-06 13:14:00,
2013-07-06 08:15:00,72.3,61.6,30.03,South,180,0.0,0.0,69,0.00,,CLR,0.00,VWS V14.01,2013-07-06 13:15:00,
2013-07-06 08:16:00,72.3,61.6,30.03,SSW,202,0.0,0.0,69,0.00,,CLR,0.00,VWS V14.01,2013-07-06 13:16:00,
2013-07-06 08:18:00,72.3,61.6,30.03,SSW,202,5.2,5.2,69,0.00,,CLR,0.00,VWS V14.01,2013-07-06 13:18:00,
2013-07-06 08:19:00,72.5,61.8,30.03,SSW,202,0.0,5.2,69,0.00,,CLR,0.00,VWS V14.01,2013-07-06 13:19:00,
2013-07-06 08:20:00,72.3,61.2,30.03,SSW,202,0.0,0.0,68,0.00,,CLR,0.00,VWS V14.01,2013-07-06 13:20:00,
2013-07-06 08:21:00,72.3,61.6,30.04,SSE,158,0.0,0.0,69,0.00,,CLR,0.00,VWS V14.01,2013-07-06 13:21:00,
2013-07-06 08:22:00,72.5,61.3,30.03,SSW,202,0.0,2.2,68,0.00,,CLR,0.00,VWS V14.01,2013-07-06 13:22:00,
2013-07-06 08:23:00,72.5,61.3,30.03,SSW,202,0.0,0.0,68,0.00,,CLR,0.00,VWS V14.01,2013-07-06 13:23:00,
2013-07-06 08:24:00,72.5,61.3,30.03,SW,225,4.8,4.8,68,0.00,,CLR,0.00,VWS V14.01,2013-07-06 13:24:00,
2013-07-06 08:25:00,72.5,61.3,30.03,SSE,158,5.2,5.2,68,0.00,,CLR,0.00,VWS V14.01,2013-07-06 13:25:00,
2013-07-06 08:26:00,72.5,60.9,30.03,South,180,0.0,5.2,67,0.00,,CLR,0.00,VWS V14.01,2013-07-06 13:26:00,
2013-07-06 08:28:00,72.5,60.9,30.03,SSE,158,0.0,0.0,67,0.00,,CLR,0.00,VWS V14.01,2013-07-06 13:28:00,
2013-07-06 08:30:00,72.5,60.9,30.03,East,90,0.0,0.0,67,0.00,,CLR,0.00,VWS V14.01,2013-07-06 13:30:00,
2013-07-06 08:31:00,72.6,61.0,30.03,South,180,0.0,0.0,67,0.00,,CLR,0.00,VWS V14.01,2013-07-06 13:31:00,
2013-07-06 08:32:00,72.6,61.0,30.03,South,180,0.0,0.0,67,0.00,,CLR,0.00,VWS V14.01,2013-07-06 13:32:00,
2013-07-06 08:33:00,72.6,61.0,30.03,South,180,0.0,0.0,67,0.00,,CLR,0.00,VWS V14.01,2013-07-06 13:33:00,
2013-07-06 08:34:00,72.8,61.2,30.04,SSW,202,9.2,9.2,67,0.00,,CLR,0.00,VWS V14.01,2013-07-06 13:34:00,
2013-07-06 08:35:00,72.8,61.2,30.04,SSE,158,0.0,9.2,67,0.00,,CLR,0.00,VWS V14.01,2013-07-06 13:35:00,
2013-07-06 08:36:00,72.8,61.2,30.03,SSE,158,6.6,6.6,67,0.00,,CLR,0.00,VWS V14.01,2013-07-06 13:36:00,
2013-07-06 08:38:00,72.8,61.2,30.03,SSE,158,0.0,6.6,67,0.00,,CLR,0.00,VWS V14.01,2013-07-06 13:38:00,
2013-07-06 08:39:00,72.8,61.2,30.03,SSE,158,0.0,6.6,67,0.00,,CLR,0.00,VWS V14.01,2013-07-06 13:39:00,
2013-07-06 08:40:00,73.0,61.4,30.03,South,180,8.8,8.8,67,0.00,,CLR,0.00,VWS V14.01,2013-07-06 13:40:00,
2013-07-06 08:41:00,73.2,61.6,30.04,South,180,0.0,0.0,67,0.00,,CLR,0.00,VWS V14.01,2013-07-06 13:41:00,
2013-07-06 08:42:00,73.0,61.4,30.04,South,180,8.0,8.0,67,0.00,,CLR,0.00,VWS V14.01,2013-07-06 13:42:00,
2013-07-06 08:43:00,73.0,61.4,30.04,South,180,8.0,8.0,67,0.00,,CLR,0.00,VWS V14.01,2013-07-06 13:43:00,
2013-07-06 08:44:00,73.2,61.6,30.04,SSE,158,0.0,8.0,67,0.00,,CLR,0.00,VWS V14.01,2013-07-06 13:44:00,
2013-07-06 08:45:00,73.2,61.6,30.04,SSE,158,0.0,0.0,67,0.00,,CLR,0.00,VWS V14.01,2013-07-06 13:45:00,
2013-07-06 08:46:00,73.2,61.6,30.03,SSE,158,0.0,0.0,67,0.00,,CLR,0.00,VWS V14.01,2013-07-06 13:46:00,
2013-07-06 08:48:00,73.5,61.9,30.03,South,180,0.0,0.0,67,0.00,,CLR,0.00,VWS V14.01,2013-07-06 13:48:00,
2013-07-06 08:49:00,73.5,61.9,30.03,SSW,202,0.0,0.0,67,0.00,,CLR,0.00,VWS V14.01,2013-07-06 13:49:00,
2013-07-06 08:50:00,73.5,61.9,30.03,South,180,7.0,7.0,67,0.00,,CLR,0.00,VWS V14.01,2013-07-06 13:50:00,
2013-07-06 08:52:00,73.5,61.9,30.03,SSE,158,0.0,2.6,67,0.00,,CLR,0.00,VWS V14.01,2013-07-06 13:52:00,
2013-07-06 08:54:00,73.7,62.1,30.03,South,180,0.0,0.0,67,0.00,,CLR,0.00,VWS V14.01,2013-07-06 13:54:00,
2013-07-06 08:55:00,73.7,62.1,30.03,SSE,158,0.0,0.0,67,0.00,,CLR,0.00,VWS V14.01,2013-07-06 13:55:00,
2013-07-06 08:56:00,73.7,61.7,30.03,SSE,158,0.0,0.0,66,0.00,,CLR,0.00,VWS V14.01,2013-07-06 13:56:00,
2013-07-06 08:58:00,73.7,61.7,30.03,SSE,158,0.0,0.0,66,0.00,,CLR,0.00,VWS V14.01,2013-07-06 13:58:00,
2013-07-06 09:00:00,73.7,61.7,30.03,SW,225,0.0,0.0,66,0.00,,CLR,0.00,VWS V14.01,2013-07-06 14:00:00,
2013-07-06 09:01:00,73.9,61.8,30.03,SSE,158,2.6,2.6,66,0.00,,CLR,0.00,VWS V14.01,2013-07-06 14:01:00,
2013-07-06 09:02:00,73.9,61.8,30.03,South,180,0.0,2.6,66,0.00,,CLR,0.00,VWS V14.01,2013-07-06 14:02:00,
2013-07-06 09:04:00,74.1,62.5,30.04,South,180,0.0,0.0,67,0.00,,CLR,0.00,VWS V14.01,2013-07-06 14:04:00,
2013-07-06 09:06:00,74.1,62.0,30.03,South,180,0.0,0.0,66,0.00,,CLR,0.00,VWS V14.01,2013-07-06 14:06:00,
2013-07-06 09:07:00,74.3,62.6,30.04,South,180,0.0,0.0,67,0.00,,CLR,0.00,VWS V14.01,2013-07-06 14:07:00,
2013-07-06 09:08:00,74.3,62.2,30.03,SW,225,0.0,0.0,66,0.00,,CLR,0.00,VWS V14.01,2013-07-06 14:08:00,
2013-07-06 09:09:00,74.3,62.2,30.03,SW,225,0.0,0.0,66,0.00,,CLR,0.00,VWS V14.01,2013-07-06 14:09:00,
2013-07-06 09:10:00,74.4,61.9,30.03,South,180,0.0,0.0,65,0.00,,CLR,0.00,VWS V14.01,2013-07-06 14:10:00,
2013-07-06 09:12:00,74.8,62.3,30.03,South,180,0.0,1.2,65,0.00,,CLR,0.00,VWS V14.01,2013-07-06 14:12:00,
2013-07-06 09:13:00,74.8,62.3,30.03,South,180,0.0,0.0,65,0.00,,CLR,0.00,VWS V14.01,2013-07-06 14:13:00,
2013-07-06 09:14:00,74.8,62.3,30.03,South,180,10.2,10.2,65,0.00,,CLR,0.00,VWS V14.01,2013-07-06 14:14:00,
2013-07-06 09:15:00,74.8,62.3,30.03,South,180,6.2,10.2,65,0.00,,CLR,0.00,VWS V14.01,2013-07-06 14:15:00,
2013-07-06 09:16:00,74.8,61.8,30.03,SSW,202,0.0,6.2,64,0.00,,CLR,0.00,VWS V14.01,2013-07-06 14:16:00,
2013-07-06 09:18:00,74.8,61.8,30.03,South,180,0.0,0.0,64,0.00,,CLR,0.00,VWS V14.01,2013-07-06 14:18:00,
2013-07-06 09:20:00,75.2,62.2,30.03,WSW,248,0.0,0.0,64,0.00,,CLR,0.00,VWS V14.01,2013-07-06 14:20:00,
2013-07-06 09:21:00,75.2,62.2,30.03,South,180,1.6,1.6,64,0.00,,CLR,0.00,VWS V14.01,2013-07-06 14:21:00,
2013-07-06 09:22:00,75.3,62.3,30.03,West,270,0.0,1.6,64,0.00,,CLR,0.00,VWS V14.01,2013-07-06 14:22:00,
2013-07-06 09:24:00,75.3,61.8,30.03,WSW,248,0.0,0.0,63,0.00,,CLR,0.00,VWS V14.01,2013-07-06 14:24:00,
2013-07-06 09:25:00,75.3,61.8,30.03,WSW,248,0.0,0.0,63,0.00,,CLR,0.00,VWS V14.01,2013-07-06 14:25:00,
2013-07-06 09:26:00,75.3,61.8,30.03,WSW,248,0.0,0.0,63,0.00,,CLR,0.00,VWS V14.01,2013-07-06 14:26:00,
2013-07-06 09:27:00,75.3,61.8,30.03,WSW,248,0.0,0.0,63,0.00,,CLR,0.00,VWS V14.01,2013-07-06 14:27:00,
2013-07-06 09:28:00,75.3,61.8,30.03,SSE,158,0.0,0.0,63,0.00,,CLR,0.00,VWS V14.01,2013-07-06 14:28:00,
2013-07-06 09:30:00,75.3,61.8,30.03,SW,225,0.0,0.0,63,0.00,,CLR,0.00,VWS V14.01,2013-07-06 14:30:00,
2013-07-06 09:31:00,75.3,61.8,30.03,SW,225,0.0,0.0,63,0.00,,CLR,0.00,VWS V14.01,2013-07-06 14:31:00,
2013-07-06 09:32:00,75.3,61.8,30.03,South,180,0.0,5.8,63,0.00,,CLR,0.00,VWS V14.01,2013-07-06 14:32:00,
2013-07-06 09:33:00,75.3,61.8,30.03,South,180,0.0,5.8,63,0.00,,CLR,0.00,VWS V14.01,2013-07-06 14:33:00,
2013-07-06 09:34:00,75.5,62.0,30.03,South,180,12.4,12.4,63,0.00,,CLR,0.00,VWS V14.01,2013-07-06 14:34:00,
2013-07-06 09:36:00,75.5,62.0,30.03,SSE,158,0.0,12.4,63,0.00,,CLR,0.00,VWS V14.01,2013-07-06 14:36:00,
2013-07-06 09:37:00,75.5,61.6,30.03,SSE,158,0.0,0.0,62,0.00,,CLR,0.00,VWS V14.01,2013-07-06 14:37:00,
2013-07-06 09:38:00,75.7,61.8,30.03,SSW,202,2.6,2.6,62,0.00,,CLR,0.00,VWS V14.01,2013-07-06 14:38:00,
2013-07-06 09:40:00,75.9,62.0,30.03,WSW,248,0.0,0.0,62,0.00,,CLR,0.00,VWS V14.01,2013-07-06 14:40:00,
2013-07-06 09:41:00,75.9,62.0,30.03,WSW,248,0.0,0.0,62,0.00,,CLR,0.00,VWS V14.01,2013-07-06 14:41:00,
2013-07-06 09:42:00,75.9,62.0,30.03,WSW,248,0.0,0.0,62,0.00,,CLR,0.00,VWS V14.01,2013-07-06 14:42:00,
2013-07-06 09:43:00,75.9,62.0,30.03,WSW,248,0.0,0.0,62,0.00,,CLR,0.00,VWS V14.01,2013-07-06 14:43:00,
2013-07-06 09:44:00,75.7,61.8,30.03,South,180,0.0,0.0,62,0.00,,CLR,0.00,VWS V14.01,2013-07-06 14:44:00,
2013-07-06 09:45:00,75.7,61.8,30.03,South,180,0.0,0.0,62,0.00,,CLR,0.00,VWS V14.01,2013-07-06 14:45:00,
2013-07-06 09:46:00,75.9,62.0,30.03,South,180,4.8,4.8,62,0.00,,CLR,0.00,VWS V14.01,2013-07-06 14:46:00,
2013-07-06 09:47:00,75.9,62.0,30.03,South,180,4.8,4.8,62,0.00,,CLR,0.00,VWS V14.01,2013-07-06 14:47:00,
2013-07-06 09:48:00,76.1,62.2,30.03,WSW,248,0.0,4.8,62,0.00,,CLR,0.00,VWS V14.01,2013-07-06 14:48:00,
2013-07-06 09:50:00,76.1,61.7,30.03,SSW,202,0.0,1.2,61,0.00,,CLR,0.00,VWS V14.01,2013-07-06 14:50:00,
2013-07-06 09:51:00,76.1,61.7,30.03,SSW,202,0.0,1.2,61,0.00,,CLR,0.00,VWS V14.01,2013-07-06 14:51:00,
2013-07-06 09:52:00,76.2,61.8,30.03,SSW,202,0.0,0.0,61,0.00,,CLR,0.00,VWS V14.01,2013-07-06 14:52:00,
2013-07-06 09:54:00,76.4,62.0,30.03,SSE,158,2.2,2.2,61,0.00,,CLR,0.00,VWS V14.01,2013-07-06 14:54:00,
2013-07-06 09:56:00,76.6,62.2,30.03,South,180,3.0,3.0,61,0.00,,CLR,0.00,VWS V14.01,2013-07-06 14:56:00,
2013-07-06 09:58:00,76.8,61.9,30.02,SE,135,0.0,0.0,60,0.00,,CLR,0.00,VWS V14.01,2013-07-06 14:58:00,
2013-07-06 09:59:00,76.8,61.9,30.02,SE,135,0.0,0.0,60,0.00,,CLR,0.00,VWS V14.01,2013-07-06 14:59:00,
2013-07-06 10:00:00,76.8,61.9,30.02,SSE,158,0.0,2.6,60,0.00,,CLR,0.00,VWS V14.01,2013-07-06 15:00:00,
2013-07-06 10:01:00,76.8,61.9,30.02,SSE,158,0.0,2.6,60,0.00,,CLR,0.00,VWS V14.01,2013-07-06 15:01:00,
2013-07-06 10:02:00,77.1,62.2,30.02,South,180,1.6,1.6,60,0.00,,CLR,0.00,VWS V14.01,2013-07-06 15:02:00,
2013-07-06 10:03:00,77.1,62.2,30.02,South,180,1.6,1.6,60,0.00,,CLR,0.00,VWS V14.01,2013-07-06 15:03:00,
2013-07-06 10:04:00,77.1,62.2,30.02,SE,135,0.0,1.6,60,0.00,,CLR,0.00,VWS V14.01,2013-07-06 15:04:00,
2013-07-06 10:05:00,77.1,62.2,30.02,SE,135,0.0,0.0,60,0.00,,CLR,0.00,VWS V14.01,2013-07-06 15:05:00,
2013-07-06 10:06:00,77.1,62.2,30.02,ESE,112,0.0,0.0,60,0.00,,CLR,0.00,VWS V14.01,2013-07-06 15:06:00,
2013-07-06 10:07:00,77.1,62.2,30.02,ESE,112,0.0,0.0,60,0.00,,CLR,0.00,VWS V14.01,2013-07-06 15:07:00,
2013-07-06 10:08:00,77.3,62.3,30.03,ESE,112,0.0,0.0,60,0.00,,CLR,0.00,VWS V14.01,2013-07-06 15:08:00,
2013-07-06 10:09:00,77.3,62.3,30.03,WSW,248,0.0,0.0,60,0.00,,CLR,0.00,VWS V14.01,2013-07-06 15:09:00,
2013-07-06 10:10:00,77.3,62.3,30.03,WSW,248,0.0,0.0,60,0.00,,CLR,0.00,VWS V14.01,2013-07-06 15:10:00,
2013-07-06 10:11:00,77.3,62.3,30.03,West,270,0.0,0.0,60,0.00,,CLR,0.00,VWS V14.01,2013-07-06 15:11:00,
2013-07-06 10:12:00,77.3,61.9,30.03,SSE,158,0.0,0.0,59,0.00,,CLR,0.00,VWS V14.01,2013-07-06 15:12:00,
2013-07-06 10:13:00,77.3,61.9,30.03,SSE,158,0.0,0.0,59,0.00,,CLR,0.00,VWS V14.01,2013-07-06 15:13:00,
2013-07-06 10:14:00,77.5,62.1,30.03,South,180,0.0,0.0,59,0.00,,CLR,0.00,VWS V14.01,2013-07-06 15:14:00,
2013-07-06 10:16:00,77.7,62.2,30.03,SW,225,0.0,0.0,59,0.00,,CLR,0.00,VWS V14.01,2013-07-06 15:16:00,
2013-07-06 10:17:00,77.9,62.4,30.02,SSE,158,0.0,0.0,59,0.00,,CLR,0.00,VWS V14.01,2013-07-06 15:17:00,
2013-07-06 10:18:00,77.9,62.0,30.02,SSW,202,3.4,3.4,58,0.00,,CLR,0.00,VWS V14.01,2013-07-06 15:18:00,
2013-07-06 10:19:00,77.9,62.0,30.02,South,180,3.4,3.4,58,0.00,,CLR,0.00,VWS V14.01,2013-07-06 15:19:00,
2013-07-06 10:20:00,78.0,61.5,30.02,South,180,0.0,6.6,57,0.00,,CLR,0.00,VWS V14.01,2013-07-06 15:20:00,
2013-07-06 10:21:00,78.0,61.5,30.02,South,180,0.0,0.0,57,0.00,,CLR,0.00,VWS V14.01,2013-07-06 15:21:00,
2013-07-06 10:22:00,78.0,61.5,30.02,SSE,158,3.4,3.4,57,0.00,,CLR,0.00,VWS V14.01,2013-07-06 15:22:00,
2013-07-06 10:23:00,78.0,61.5,30.02,SSE,158,3.4,3.4,57,0.00,,CLR,0.00,VWS V14.01,2013-07-06 15:23:00,
2013-07-06 10:24:00,77.9,61.5,30.02,SSE,158,0.0,3.4,57,0.00,,CLR,0.00,VWS V14.01,2013-07-06 15:24:00,
2013-07-06 10:25:00,78.2,61.7,30.02,SSW,202,2.2,3.4,57,0.00,,CLR,0.00,VWS V14.01,2013-07-06 15:25:00,
2013-07-06 10:26:00,78.2,61.7,30.03,SSW,202,0.0,2.2,57,0.00,,CLR,0.00,VWS V14.01,2013-07-06 15:26:00,
2013-07-06 10:28:00,78.2,61.2,30.03,South,180,6.6,6.6,56,0.00,,CLR,0.00,VWS V14.01,2013-07-06 15:28:00,
2013-07-06 10:30:00,78.2,61.2,30.03,South,180,0.0,6.6,56,0.00,,CLR,0.00,VWS V14.01,2013-07-06 15:30:00,
2013-07-06 10:31:00,78.2,61.2,30.03,SE,135,0.0,0.0,56,0.00,,CLR,0.00,VWS V14.01,2013-07-06 15:31:00,
2013-07-06 10:32:00,78.2,61.2,30.03,South,180,0.0,0.0,56,0.00,,CLR,0.00,VWS V14.01,2013-07-06 15:32:00,
2013-07-06 10:33:00,78.2,61.2,30.03,South,180,0.0,0.0,56,0.00,,CLR,0.00,VWS V14.01,2013-07-06 15:33:00,
2013-07-06 10:34:00,78.4,61.4,30.03,SSE,158,3.4,3.4,56,0.00,,CLR,0.00,VWS V14.01,2013-07-06 15:34:00,
2013-07-06 10:35:00,78.4,61.4,30.03,SSE,158,3.4,3.4,56,0.00,,CLR,0.00,VWS V14.01,2013-07-06 15:35:00,
2013-07-06 10:36:00,78.6,61.1,30.03,South,180,0.0,3.4,55,0.00,,CLR,0.00,VWS V14.01,2013-07-06 15:36:00,
2013-07-06 10:37:00,78.6,61.1,30.03,South,180,0.0,3.4,55,0.00,,CLR,0.00,VWS V14.01,2013-07-06 15:37:00,
2013-07-06 10:38:00,78.6,61.1,30.03,SSW,202,0.0,0.0,55,0.00,,CLR,0.00,VWS V14.01,2013-07-06 15:38:00,
2013-07-06 10:39:00,78.6,61.1,30.03,SSW,202,0.0,0.0,55,0.00,,CLR,0.00,VWS V14.01,2013-07-06 15:39:00,
2013-07-06 10:40:00,78.9,61.9,30.02,SSE,158,0.0,0.0,56,0.00,,CLR,0.00,VWS V14.01,2013-07-06 15:40:00,
2013-07-06 10:42:00,78.9,61.4,30.02,SSE,158,0.0,0.0,55,0.00,,CLR,0.00,VWS V14.01,2013-07-06 15:42:00,
2013-07-06 10:43:00,78.9,61.4,30.02,SSW,202,4.4,4.4,55,0.00,,CLR,0.00,VWS V14.01,2013-07-06 15:43:00,
2013-07-06 10:44:00,78.9,61.4,30.03,South,180,0.0,5.2,55,0.00,,CLR,0.00,VWS V14.01,2013-07-06 15:44:00,
2013-07-06 10:45:00,78.9,61.4,30.03,South,180,0.0,5.2,55,0.00,,CLR,0.00,VWS V14.01,2013-07-06 15:45:00,
2013-07-06 10:46:00,78.9,61.4,30.03,South,180,2.2,2.2,55,0.00,,CLR,0.00,VWS V14.01,2013-07-06 15:46:00,
2013-07-06 10:47:00,78.9,61.4,30.03,South,180,2.2,2.2,55,0.00,,CLR,0.00,VWS V14.01,2013-07-06 15:47:00,
2013-07-06 10:48:00,79.1,61.6,30.03,SSW,202,0.0,2.2,55,0.00,,CLR,0.00,VWS V14.01,2013-07-06 15:48:00,
2013-07-06 10:50:00,79.1,61.0,30.03,South,180,0.0,0.0,54,0.00,,CLR,0.00,VWS V14.01,2013-07-06 15:50:00,
2013-07-06 10:51:00,79.1,61.0,30.03,South,180,0.0,0.0,54,0.00,,CLR,0.00,VWS V14.01,2013-07-06 15:51:00,
2013-07-06 10:52:00,79.1,61.6,30.03,SW,225,0.0,0.0,55,0.00,,CLR,0.00,VWS V14.01,2013-07-06 15:52:00,
2013-07-06 10:53:00,79.5,61.9,30.02,SW,225,0.0,0.0,55,0.00,,CLR,0.00,VWS V14.01,2013-07-06 15:53:00,
2013-07-06 10:54:00,79.5,61.9,30.02,SW,225,0.0,0.0,55,0.00,,CLR,0.00,VWS V14.01,2013-07-06 15:54:00,
2013-07-06 10:55:00,79.5,61.9,30.02,SW,225,0.0,0.0,55,0.00,,CLR,0.00,VWS V14.01,2013-07-06 15:55:00,
2013-07-06 10:56:00,79.7,62.1,30.02,SSW,202,0.0,0.0,55,0.00,,CLR,0.00,VWS V14.01,2013-07-06 15:56:00,
2013-07-06 10:57:00,79.7,62.1,30.02,SSW,202,0.0,0.0,55,0.00,,CLR,0.00,VWS V14.01,2013-07-06 15:57:00,
2013-07-06 10:58:00,79.5,61.4,30.02,SE,135,0.0,0.0,54,0.00,,CLR,0.00,VWS V14.01,2013-07-06 15:58:00,
2013-07-06 11:00:00,79.7,61.1,30.02,NNE,22,0.0,0.0,53,0.00,,CLR,0.00,VWS V14.01,2013-07-06 16:00:00,
2013-07-06 11:02:00,80.0,61.3,30.02,East,90,0.0,0.0,53,0.00,,CLR,0.00,VWS V14.01,2013-07-06 16:02:00,
2013-07-06 11:03:00,80.0,61.3,30.02,East,90,0.0,0.0,53,0.00,,CLR,0.00,VWS V14.01,2013-07-06 16:03:00,
2013-07-06 11:04:00,80.4,62.2,30.02,South,180,0.0,0.0,54,0.00,,CLR,0.00,VWS V14.01,2013-07-06 16:04:00,
2013-07-06 11:05:00,80.4,62.2,30.02,South,180,0.0,0.0,54,0.00,,CLR,0.00,VWS V14.01,2013-07-06 16:05:00,
2013-07-06 11:06:00,80.4,62.2,30.02,South,180,4.8,4.8,54,0.00,,CLR,0.00,VWS V14.01,2013-07-06 16:06:00,
2013-07-06 11:07:00,80.4,62.2,30.02,South,180,4.8,4.8,54,0.00,,CLR,0.00,VWS V14.01,2013-07-06 16:07:00,
2013-07-06 11:08:00,80.4,61.7,30.02,SSE,158,0.0,4.8,53,0.00,,CLR,0.00,VWS V14.01,2013-07-06 16:08:00,
2013-07-06 11:10:00,80.6,61.4,30.02,South,180,0.0,0.0,52,0.00,,CLR,0.00,VWS V14.01,2013-07-06 16:10:00,
2013-07-06 11:11:00,80.7,61.5,30.02,South,180,0.0,0.0,52,0.00,,CLR,0.00,VWS V14.01,2013-07-06 16:11:00,
2013-07-06 11:12:00,80.6,60.8,30.02,South,180,9.2,9.2,51,0.00,,CLR,0.00,VWS V14.01,2013-07-06 16:12:00,
2013-07-06 11:13:00,80.6,60.8,30.02,South,180,9.2,9.2,51,0.00,,CLR,0.00,VWS V14.01,2013-07-06 16:13:00,
2013-07-06 11:14:00,80.7,60.9,30.02,SSE,158,0.0,9.2,51,0.00,,CLR,0.00,VWS V14.01,2013-07-06 16:14:00,
2013-07-06 11:16:00,80.7,60.9,30.02,SSE,158,0.0,0.0,51,0.00,,CLR,0.00,VWS V14.01,2013-07-06 16:16:00,
2013-07-06 11:17:00,80.7,60.9,30.02,SSE,158,0.0,0.0,51,0.00,,CLR,0.00,VWS V14.01,2013-07-06 16:17:00,
2013-07-06 11:18:00,80.7,60.9,30.02,South,180,0.0,0.0,51,0.00,,CLR,0.00,VWS V14.01,2013-07-06 16:18:00,
2013-07-06 11:20:00,80.9,60.5,30.02,SSW,202,0.0,4.4,50,0.00,,CLR,0.00,VWS V14.01,2013-07-06 16:20:00,
2013-07-06 11:22:00,80.9,60.5,30.02,SSW,202,0.0,0.0,50,0.00,,CLR,0.00,VWS V14.01,2013-07-06 16:22:00,
2013-07-06 11:23:00,80.9,60.5,30.01,SSE,158,0.0,5.2,50,0.00,,CLR,0.00,VWS V14.01,2013-07-06 16:23:00,
2013-07-06 11:24:00,81.1,60.2,30.01,SSE,158,0.0,2.6,49,0.00,,CLR,0.00,VWS V14.01,2013-07-06 16:24:00,
2013-07-06 11:26:00,81.1,60.2,30.01,SSE,158,0.0,0.0,49,0.00,,CLR,0.00,VWS V14.01,2013-07-06 16:26:00,
2013-07-06 11:27:00,81.1,60.2,30.01,SSE,158,0.0,0.0,49,0.00,,CLR,0.00,VWS V14.01,2013-07-06 16:27:00,
2013-07-06 11:28:00,81.1,60.2,30.01,SSE,158,0.0,0.0,49,0.00,,CLR,0.00,VWS V14.01,2013-07-06 16:28:00,
2013-07-06 11:29:00,81.1,60.2,30.01,SSE,158,0.0,0.0,49,0.00,,CLR,0.00,VWS V14.01,2013-07-06 16:29:00,
2013-07-06 11:30:00,81.1,59.6,30.01,SE,135,0.0,5.8,48,0.00,,CLR,0.00,VWS V14.01,2013-07-06 16:30:00,
2013-07-06 11:32:00,81.3,59.8,30.01,SW,225,0.0,0.0,48,0.00,,CLR,0.00,VWS V14.01,2013-07-06 16:32:00,
2013-07-06 11:34:00,81.3,59.8,30.01,SE,135,3.4,6.6,48,0.00,,CLR,0.00,VWS V14.01,2013-07-06 16:34:00,
2013-07-06 11:36:00,81.3,59.8,30.01,SSE,158,0.0,0.0,48,0.00,,CLR,0.00,VWS V14.01,2013-07-06 16:36:00,
2013-07-06 11:38:00,81.5,59.9,30.01,West,270,0.0,0.0,48,0.00,,CLR,0.00,VWS V14.01,2013-07-06 16:38:00,
2013-07-06 11:39:00,81.5,59.9,30.01,West,270,0.0,0.0,48,0.00,,CLR,0.00,VWS V14.01,2013-07-06 16:39:00,
2013-07-06 11:40:00,81.5,59.9,30.01,West,270,0.0,0.0,48,0.00,,CLR,0.00,VWS V14.01,2013-07-06 16:40:00,
2013-07-06 11:41:00,81.3,59.8,30.01,West,270,0.0,0.0,48,0.00,,CLR,0.00,VWS V14.01,2013-07-06 16:41:00,
2013-07-06 11:42:00,81.3,59.8,30.01,South,180,0.0,9.8,48,0.00,,CLR,0.00,VWS V14.01,2013-07-06 16:42:00,
2013-07-06 11:44:00,81.5,59.3,30.01,SSE,158,0.0,0.0,47,0.00,,CLR,0.00,VWS V14.01,2013-07-06 16:44:00,
2013-07-06 11:45:00,81.5,59.3,30.01,SSE,158,0.0,0.0,47,0.00,,CLR,0.00,VWS V14.01,2013-07-06 16:45:00,
2013-07-06 11:46:00,81.6,59.4,30.01,West,270,0.0,0.0,47,0.00,,CLR,0.00,VWS V14.01,2013-07-06 16:46:00,
2013-07-06 11:48:00,81.6,59.4,30.01,SSW,202,0.0,0.0,47,0.00,,CLR,0.00,VWS V14.01,2013-07-06 16:48:00,
2013-07-06 11:50:00,81.8,59.6,30.01,SW,225,0.0,0.0,47,0.00,,CLR,0.00,VWS V14.01,2013-07-06 16:50:00,
2013-07-06 11:51:00,81.6,59.4,30.01,South,180,0.0,0.0,47,0.00,,CLR,0.00,VWS V14.01,2013-07-06 16:51:00,
2013-07-06 11:52:00,81.8,59.6,30.01,South,180,3.4,4.4,47,0.00,,CLR,0.00,VWS V14.01,2013-07-06 16:52:00,
2013-07-06 11:54:00,82.0,59.2,30.01,SSE,158,0.0,3.4,46,0.00,,CLR,0.00,VWS V14.01,2013-07-06 16:54:00,
2013-07-06 11:56:00,82.0,59.2,30.01,SE,135,0.0,0.0,46,0.00,,CLR,0.00,VWS V14.01,2013-07-06 16:56:00,
2013-07-06 11:58:00,82.4,59.6,30.01,SSE,158,0.0,0.0,46,0.00,,CLR,0.00,VWS V14.01,2013-07-06 16:58:00,
2013-07-06 12:00:00,82.5,58.4,30.01,SSW,202,5.8,5.8,44,0.00,,CLR,0.00,VWS V14.01,2013-07-06 17:00:00,
2013-07-06 12:02:00,82.5,58.4,30.01,West,270,0.0,5.8,44,0.00,,CLR,0.00,VWS V14.01,2013-07-06 17:02:00,
2013-07-06 12:03:00,82.5,58.4,30.01,West,270,0.0,0.0,44,0.00,,CLR,0.00,VWS V14.01,2013-07-06 17:03:00,
2013-07-06 12:04:00,82.2,58.1,30.01,West,270,7.0,7.0,44,0.00,,CLR,0.00,VWS V14.01,2013-07-06 17:04:00,
2013-07-06 12:06:00,82.2,58.1,30.01,SE,135,0.0,0.0,44,0.00,,CLR,0.00,VWS V14.01,2013-07-06 17:06:00,
2013-07-06 12:08:00,82.7,59.2,30.01,SSE,158,0.0,0.0,45,0.00,,CLR,0.00,VWS V14.01,2013-07-06 17:08:00,
2013-07-06 12:10:00,82.7,58.6,30.01,South,180,0.0,2.6,44,0.00,,CLR,0.00,VWS V14.01,2013-07-06 17:10:00,
2013-07-06 12:11:00,82.7,58.6,30.01,South,180,0.0,2.6,44,0.00,,CLR,0.00,VWS V14.01,2013-07-06 17:11:00,
2013-07-06 12:12:00,82.9,58.1,30.01,South,180,2.6,2.6,43,0.00,,CLR,0.00,VWS V14.01,2013-07-06 17:12:00,
2013-07-06 12:13:00,82.9,58.1,30.01,South,180,2.6,2.6,43,0.00,,CLR,0.00,VWS V14.01,2013-07-06 17:13:00,
2013-07-06 12:14:00,83.1,58.3,30.01,SSW,202,0.0,2.6,43,0.00,,CLR,0.00,VWS V14.01,2013-07-06 17:14:00,
2013-07-06 12:16:00,82.9,58.1,30.01,SSW,202,4.8,4.8,43,0.00,,CLR,0.00,VWS V14.01,2013-07-06 17:16:00,
2013-07-06 12:17:00,83.1,58.3,30.01,SSW,202,0.0,0.0,43,0.00,,CLR,0.00,VWS V14.01,2013-07-06 17:17:00,
2013-07-06 12:18:00,83.1,58.3,30.01,SSE,158,2.2,2.2,43,0.00,,CLR,0.00,VWS V14.01,2013-07-06 17:18:00,
2013-07-06 12:20:00,83.4,57.3,30.01,SSE,158,3.4,3.4,41,0.00,,CLR,0.00,VWS V14.01,2013-07-06 17:20:00,
2013-07-06 12:21:00,83.4,57.3,30.01,SSE,158,3.4,3.4,41,0.00,,CLR,0.00,VWS V14.01,2013-07-06 17:21:00,
2013-07-06 12:22:00,83.6,58.1,30.01,South,180,0.0,3.4,42,0.00,,CLR,0.00,VWS V14.01,2013-07-06 17:22:00,
2013-07-06 12:23:00,83.6,58.1,30.01,South,180,0.0,3.4,42,0.00,,CLR,0.00,VWS V14.01,2013-07-06 17:23:00,
2013-07-06 12:24:00,83.6,57.4,30.01,West,270,0.0,4.0,41,0.00,,CLR,0.00,VWS V14.01,2013-07-06 17:24:00,
2013-07-06 12:26:00,83.6,57.4,30.01,SW,225,0.0,0.0,41,0.00,,CLR,0.00,VWS V14.01,2013-07-06 17:26:00,
2013-07-06 12:28:00,83.6,58.1,30.01,SE,135,8.4,8.4,42,0.00,,CLR,0.00,VWS V14.01,2013-07-06 17:28:00,
2013-07-06 12:29:00,83.8,57.6,30.01,South,180,4.4,8.4,41,0.00,,CLR,0.00,VWS V14.01,2013-07-06 17:29:00,
2013-07-06 12:30:00,83.8,57.6,30.01,SSW,202,0.0,4.4,41,0.00,,CLR,0.00,VWS V14.01,2013-07-06 17:30:00,
2013-07-06 12:32:00,84.0,57.8,30.01,South,180,0.0,0.0,41,0.00,,CLR,0.00,VWS V14.01,2013-07-06 17:32:00,
2013-07-06 12:33:00,84.0,57.8,30.01,South,180,0.0,0.0,41,0.00,,CLR,0.00,VWS V14.01,2013-07-06 17:33:00,
2013-07-06 12:34:00,84.0,57.8,30.01,SSW,202,0.0,0.0,41,0.00,,CLR,0.00,VWS V14.01,2013-07-06 17:34:00,
2013-07-06 12:35:00,84.2,58.0,30.01,WSW,248,0.0,0.0,41,0.00,,CLR,0.00,VWS V14.01,2013-07-06 17:35:00,
2013-07-06 12:36:00,84.3,58.1,30.01,WNW,292,0.0,0.0,41,0.00,,CLR,0.00,VWS V14.01,2013-07-06 17:36:00,
2013-07-06 12:38:00,84.3,57.4,30.01,South,180,5.2,5.2,40,0.00,,CLR,0.00,VWS V14.01,2013-07-06 17:38:00,
2013-07-06 12:39:00,84.3,57.4,30.01,South,180,5.2,5.2,40,0.00,,CLR,0.00,VWS V14.01,2013-07-06 17:39:00,
2013-07-06 12:40:00,84.3,57.4,30.01,South,180,3.0,6.2,40,0.00,,CLR,0.00,VWS V14.01,2013-07-06 17:40:00,
2013-07-06 12:42:00,84.3,56.7,30.01,SSE,158,0.0,3.0,39,0.00,,CLR,0.00,VWS V14.01,2013-07-06 17:42:00,
2013-07-06 12:44:00,84.5,56.8,30.01,South,180,0.0,0.0,39,0.00,,CLR,0.00,VWS V14.01,2013-07-06 17:44:00,
2013-07-06 12:45:00,84.7,56.3,30.01,South,180,0.0,0.0,38,0.00,,CLR,0.00,VWS V14.01,2013-07-06 17:45:00,
2013-07-06 12:46:00,84.7,57.0,30.00,SE,135,0.8,0.8,39,0.00,,CLR,0.00,VWS V14.01,2013-07-06 17:46:00,
2013-07-06 12:47:00,84.7,57.0,30.00,SE,135,0.8,0.8,39,0.00,,CLR,0.00,VWS V14.01,2013-07-06 17:47:00,
2013-07-06 12:48:00,84.9,56.5,30.00,SSE,158,0.0,5.8,38,0.00,,CLR,0.00,VWS V14.01,2013-07-06 17:48:00,
2013-07-06 12:50:00,85.1,55.9,30.00,SSW,202,0.0,7.0,37,0.00,,CLR,0.00,VWS V14.01,2013-07-06 17:50:00,
2013-07-06 12:51:00,85.1,55.9,30.00,SSW,202,0.0,7.0,37,0.00,,CLR,0.00,VWS V14.01,2013-07-06 17:51:00,
2013-07-06 12:52:00,85.1,55.9,30.00,South,180,8.4,8.4,37,0.00,,CLR,0.00,VWS V14.01,2013-07-06 17:52:00,
2013-07-06 12:53:00,85.2,55.3,30.00,SSE,158,0.0,0.0,36,0.00,,CLR,0.00,VWS V14.01,2013-07-06 17:53:00,
2013-07-06 12:54:00,85.4,56.2,30.00,West,270,0.0,0.0,37,0.00,,CLR,0.00,VWS V14.01,2013-07-06 17:54:00,
2013-07-06 12:56:00,85.6,56.4,30.00,West,270,0.0,0.0,37,0.00,,CLR,0.00,VWS V14.01,2013-07-06 17:56:00,
2013-07-06 12:57:00,85.6,56.4,30.00,West,270,0.0,0.0,37,0.00,,CLR,0.00,VWS V14.01,2013-07-06 17:57:00,
2013-07-06 12:58:00,85.1,55.2,30.00,WNW,292,0.0,0.0,36,0.00,,CLR,0.00,VWS V14.01,2013-07-06 17:58:00,
2013-07-06 13:00:00,85.1,55.2,30.00,West,270,0.0,0.0,36,0.00,,CLR,0.00,VWS V14.01,2013-07-06 18:00:00,
2013-07-06 13:02:00,85.4,55.4,30.00,South,180,0.0,0.0,36,0.00,,CLR,0.00,VWS V14.01,2013-07-06 18:02:00,
2013-07-06 13:03:00,85.4,55.4,30.00,South,180,0.0,0.0,36,0.00,,CLR,0.00,VWS V14.01,2013-07-06 18:03:00,
2013-07-06 13:04:00,85.1,55.9,30.00,South,180,0.0,0.0,37,0.00,,CLR,0.00,VWS V14.01,2013-07-06 18:04:00,
2013-07-06 13:05:00,85.2,56.0,30.00,SSE,158,0.0,0.0,37,0.00,,CLR,0.00,VWS V14.01,2013-07-06 18:05:00,
2013-07-06 13:06:00,85.4,56.2,30.00,SSE,158,2.2,2.2,37,0.00,,CLR,0.00,VWS V14.01,2013-07-06 18:06:00,
2013-07-06 13:08:00,85.6,56.4,30.00,South,180,0.0,4.4,37,0.00,,CLR,0.00,VWS V14.01,2013-07-06 18:08:00,
2013-07-06 13:09:00,85.6,56.4,30.00,South,180,0.0,0.0,37,0.00,,CLR,0.00,VWS V14.01,2013-07-06 18:09:00,
2013-07-06 13:10:00,85.2,55.3,30.00,SSE,158,0.0,0.0,36,0.00,,CLR,0.00,VWS V14.01,2013-07-06 18:10:00,
2013-07-06 13:11:00,85.4,55.4,30.00,South,180,1.2,1.2,36,0.00,,CLR,0.00,VWS V14.01,2013-07-06 18:11:00,
2013-07-06 13:12:00,85.6,55.6,30.00,South,180,0.0,1.2,36,0.00,,CLR,0.00,VWS V14.01,2013-07-06 18:12:00,
2013-07-06 13:14:00,85.6,55.6,30.00,SSE,158,0.0,0.0,36,0.00,,CLR,0.00,VWS V14.01,2013-07-06 18:14:00,
2013-07-06 13:15:00,85.6,55.6,30.00,SSE,158,0.0,0.0,36,0.00,,CLR,0.00,VWS V14.01,2013-07-06 18:15:00,
2013-07-06 13:16:00,85.8,56.5,30.00,South,180,0.0,0.0,37,0.00,,CLR,0.00,VWS V14.01,2013-07-06 18:16:00,
2013-07-06 13:17:00,85.8,56.5,30.00,South,180,0.0,0.0,37,0.00,,CLR,0.00,VWS V14.01,2013-07-06 18:17:00,
2013-07-06 13:18:00,86.1,56.8,29.99,ESE,112,0.0,0.0,37,0.00,,CLR,0.00,VWS V14.01,2013-07-06 18:18:00,
2013-07-06 13:19:00,86.1,56.8,29.99,ESE,112,0.0,0.0,37,0.00,,CLR,0.00,VWS V14.01,2013-07-06 18:19:00,
2013-07-06 13:20:00,86.1,56.8,29.99,SE,135,1.2,1.2,37,0.00,,CLR,0.00,VWS V14.01,2013-07-06 18:20:00,
2013-07-06 13:22:00,86.1,56.0,30.00,SSE,158,0.0,1.2,36,0.00,,CLR,0.00,VWS V14.01,2013-07-06 18:22:00,
2013-07-06 13:24:00,86.1,56.0,29.99,South,180,6.6,6.6,36,0.00,,CLR,0.00,VWS V14.01,2013-07-06 18:24:00,
2013-07-06 13:25:00,86.1,56.0,29.99,South,180,6.6,6.6,36,0.00,,CLR,0.00,VWS V14.01,2013-07-06 18:25:00,
2013-07-06 13:26:00,86.1,55.3,29.99,SSE,158,0.0,6.6,35,0.00,,CLR,0.00,VWS V14.01,2013-07-06 18:26:00,
2013-07-06 13:27:00,86.1,55.3,29.99,SSE,158,0.0,0.0,35,0.00,,CLR,0.00,VWS V14.01,2013-07-06 18:27:00,
2013-07-06 13:28:00,86.1,56.0,29.99,SSW,202,4.4,4.4,36,0.00,,CLR,0.00,VWS V14.01,2013-07-06 18:28:00,
2013-07-06 13:30:00,86.1,55.3,29.99,SSE,158,0.0,8.8,35,0.00,,CLR,0.00,VWS V14.01,2013-07-06 18:30:00,
2013-07-06 13:32:00,86.1,55.3,30.00,South,180,0.0,0.0,35,0.00,,CLR,0.00,VWS V14.01,2013-07-06 18:32:00,
2013-07-06 13:33:00,86.1,55.3,30.00,South,180,0.0,0.0,35,0.00,,CLR,0.00,VWS V14.01,2013-07-06 18:33:00,
2013-07-06 13:34:00,86.1,55.3,29.99,SSW,202,0.0,0.0,35,0.00,,CLR,0.00,VWS V14.01,2013-07-06 18:34:00,
2013-07-06 13:36:00,86.1,55.3,29.99,South,180,5.8,10.2,35,0.00,,CLR,0.00,VWS V14.01,2013-07-06 18:36:00,
2013-07-06 13:37:00,86.1,55.3,29.99,South,180,5.8,5.8,35,0.00,,CLR,0.00,VWS V14.01,2013-07-06 18:37:00,
2013-07-06 13:38:00,86.1,55.3,29.99,SSE,158,0.0,5.8,35,0.00,,CLR,0.00,VWS V14.01,2013-07-06 18:38:00,
2013-07-06 13:39:00,86.1,55.3,29.99,SSE,158,0.0,0.0,35,0.00,,CLR,0.00,VWS V14.01,2013-07-06 18:39:00,
2013-07-06 13:40:00,86.1,55.3,29.99,ESE,112,0.0,0.0,35,0.00,,CLR,0.00,VWS V14.01,2013-07-06 18:40:00,
2013-07-06 13:42:00,86.1,55.3,29.98,ESE,112,0.0,0.0,35,0.00,,CLR,0.00,VWS V14.01,2013-07-06 18:42:00,
2013-07-06 13:44:00,86.1,55.3,29.99,SSE,158,0.0,0.0,35,0.00,,CLR,0.00,VWS V14.01,2013-07-06 18:44:00,
2013-07-06 13:45:00,86.1,56.0,29.98,ESE,112,0.0,0.0,36,0.00,,CLR,0.00,VWS V14.01,2013-07-06 18:45:00,
2013-07-06 13:46:00,86.1,55.3,29.98,South,180,0.0,0.0,35,0.00,,CLR,0.00,VWS V14.01,2013-07-06 18:46:00,
2013-07-06 13:48:00,86.1,56.0,29.98,South,180,6.6,6.6,36,0.00,,CLR,0.00,VWS V14.01,2013-07-06 18:48:00,
2013-07-06 13:50:00,86.1,55.3,29.98,South,180,0.0,6.6,35,0.00,,CLR,0.00,VWS V14.01,2013-07-06 18:50:00,
2013-07-06 13:51:00,86.1,55.3,29.98,South,180,0.0,6.6,35,0.00,,CLR,0.00,VWS V14.01,2013-07-06 18:51:00,
2013-07-06 13:52:00,86.3,55.5,29.98,South,180,1.6,1.6,35,0.00,,CLR,0.00,VWS V14.01,2013-07-06 18:52:00,
2013-07-06 13:54:00,86.3,55.5,29.98,WSW,248,0.0,0.0,35,0.00,,CLR,0.00,VWS V14.01,2013-07-06 18:54:00,
2013-07-06 13:56:00,86.3,56.2,29.98,SSE,158,4.8,4.8,36,0.00,,CLR,0.00,VWS V14.01,2013-07-06 18:56:00,
2013-07-06 13:58:00,86.1,56.0,29.98,SSW,202,0.0,4.8,36,0.00,,CLR,0.00,VWS V14.01,2013-07-06 18:58:00,
2013-07-06 13:59:00,86.3,56.2,29.98,SSE,158,3.4,4.8,36,0.00,,CLR,0.00,VWS V14.01,2013-07-06 18:59:00,
2013-07-06 14:00:00,86.1,56.0,29.98,SE,135,0.0,3.4,36,0.00,,CLR,0.00,VWS V14.01,2013-07-06 19:00:00,
2013-07-06 14:01:00,86.1,56.0,29.98,SE,135,0.0,3.4,36,0.00,,CLR,0.00,VWS V14.01,2013-07-06 19:01:00,
2013-07-06 14:02:00,86.3,56.2,29.98,SSE,158,0.0,0.0,36,0.00,,CLR,0.00,VWS V14.01,2013-07-06 19:02:00,
2013-07-06 14:04:00,86.3,56.2,29.98,SE,135,0.0,0.0,36,0.00,,CLR,0.00,VWS V14.01,2013-07-06 19:04:00,
2013-07-06 14:05:00,86.3,56.2,29.98,SE,135,5.8,5.8,36,0.00,,CLR,0.00,VWS V14.01,2013-07-06 19:05:00,
2013-07-06 14:06:00,86.3,56.2,29.98,SSE,158,2.2,5.8,36,0.00,,CLR,0.00,VWS V14.01,2013-07-06 19:06:00,
2013-07-06 14:07:00,86.3,56.2,29.98,SSE,158,2.2,5.8,36,0.00,,CLR,0.00,VWS V14.01,2013-07-06 19:07:00,
2013-07-06 14:08:00,86.3,55.5,29.98,SSW,202,0.0,3.4,35,0.00,,CLR,0.00,VWS V14.01,2013-07-06 19:08:00,
2013-07-06 14:10:00,86.1,55.3,29.98,SSE,158,0.0,8.0,35,0.00,,CLR,0.00,VWS V14.01,2013-07-06 19:10:00,
2013-07-06 14:11:00,86.1,55.3,29.98,SSE,158,0.0,0.0,35,0.00,,CLR,0.00,VWS V14.01,2013-07-06 19:11:00,
2013-07-06 14:12:00,86.1,54.5,29.98,SSE,158,1.6,1.6,34,0.00,,CLR,0.00,VWS V14.01,2013-07-06 19:12:00,
2013-07-06 14:14:00,86.1,54.5,29.98,ENE,68,0.0,1.6,34,0.00,,CLR,0.00,VWS V14.01,2013-07-06 19:14:00,
2013-07-06 14:16:00,86.1,55.3,29.98,South,180,4.8,4.8,35,0.00,,CLR,0.00,VWS V14.01,2013-07-06 19:16:00,
2013-07-06 14:17:00,86.1,55.3,29.98,South,180,4.8,4.8,35,0.00,,CLR,0.00,VWS V14.01,2013-07-06 19:17:00,
2013-07-06 14:18:00,86.1,55.3,29.98,ESE,112,0.0,4.8,35,0.00,,CLR,0.00,VWS V14.01,2013-07-06 19:18:00,
2013-07-06 14:20:00,86.1,56.0,29.98,SSE,158,0.0,0.0,36,0.00,,CLR,0.00,VWS V14.01,2013-07-06 19:20:00,
2013-07-06 14:21:00,86.1,56.0,29.98,SSE,158,0.0,0.0,36,0.00,,CLR,0.00,VWS V14.01,2013-07-06 19:21:00,
2013-07-06 14:22:00,86.3,56.2,29.98,South,180,0.0,0.0,36,0.00,,CLR,0.00,VWS V14.01,2013-07-06 19:22:00,
2013-07-06 14:24:00,86.3,55.5,29.98,South,180,0.0,0.0,35,0.00,,CLR,0.00,VWS V14.01,2013-07-06 19:24:00,
2013-07-06 14:26:00,86.3,55.5,29.98,WNW,292,0.0,0.0,35,0.00,,CLR,0.00,VWS V14.01,2013-07-06 19:26:00,
2013-07-06 14:27:00,86.1,55.3,29.98,South,180,1.2,1.2,35,0.00,,CLR,0.00,VWS V14.01,2013-07-06 19:27:00,
2013-07-06 14:28:00,86.3,55.5,29.98,SE,135,0.0,1.2,35,0.00,,CLR,0.00,VWS V14.01,2013-07-06 19:28:00,
2013-07-06 14:29:00,86.3,55.5,29.98,SSE,158,0.0,1.2,35,0.00,,CLR,0.00,VWS V14.01,2013-07-06 19:29:00,
2013-07-06 14:30:00,86.3,55.5,29.98,South,180,0.0,0.0,35,0.00,,CLR,0.00,VWS V14.01,2013-07-06 19:30:00,
2013-07-06 14:32:00,86.3,55.5,29.98,South,180,4.4,4.4,35,0.00,,CLR,0.00,VWS V14.01,2013-07-06 19:32:00,
2013-07-06 14:33:00,86.3,55.5,29.98,South,180,4.4,4.4,35,0.00,,CLR,0.00,VWS V14.01,2013-07-06 19:33:00,
2013-07-06 14:34:00,86.1,54.5,29.98,South,180,0.0,4.4,34,0.00,,CLR,0.00,VWS V14.01,2013-07-06 19:34:00,
2013-07-06 14:35:00,86.1,54.5,29.98,South,180,0.0,0.0,34,0.00,,CLR,0.00,VWS V14.01,2013-07-06 19:35:00,
2013-07-06 14:36:00,86.1,54.5,29.98,SSE,158,4.8,4.8,34,0.00,,CLR,0.00,VWS V14.01,2013-07-06 19:36:00,
2013-07-06 14:37:00,86.1,54.5,29.98,SSE,158,4.8,4.8,34,0.00,,CLR,0.00,VWS V14.01,2013-07-06 19:37:00,
2013-07-06 14:38:00,85.8,54.2,29.98,South,180,8.0,8.0,34,0.00,,CLR,0.00,VWS V14.01,2013-07-06 19:38:00,
2013-07-06 14:39:00,85.8,54.2,29.98,South,180,8.0,8.0,34,0.00,,CLR,0.00,VWS V14.01,2013-07-06 19:39:00,
2013-07-06 14:40:00,86.1,54.5,29.98,SSE,158,0.0,8.0,34,0.00,,CLR,0.00,VWS V14.01,2013-07-06 19:40:00,
2013-07-06 14:42:00,86.1,53.7,29.98,SSE,158,8.4,8.4,33,0.00,,CLR,0.00,VWS V14.01,2013-07-06 19:42:00,
2013-07-06 14:44:00,86.1,53.7,29.98,SSE,158,4.8,8.4,33,0.00,,CLR,0.00,VWS V14.01,2013-07-06 19:44:00,
2013-07-06 14:45:00,86.1,53.7,29.98,SSE,158,4.8,8.4,33,0.00,,FEW049,0.00,VWS V14.01,2013-07-06 19:45:00,
2013-07-06 14:46:00,86.1,53.7,29.98,South,180,0.0,4.8,33,0.00,,CLR,0.00,VWS V14.01,2013-07-06 19:46:00,
2013-07-06 14:47:00,86.1,53.7,29.98,South,180,0.0,0.0,33,0.00,,FEW049,0.00,VWS V14.01,2013-07-06 19:47:00,
2013-07-06 14:48:00,86.3,54.7,29.98,South,180,2.6,7.6,34,0.00,,CLR,0.00,VWS V14.01,2013-07-06 19:48:00,
2013-07-06 14:49:00,86.3,54.7,29.98,South,180,2.6,7.6,34,0.00,,FEW049,0.00,VWS V14.01,2013-07-06 19:49:00,
2013-07-06 14:50:00,86.3,53.8,29.98,SSW,202,0.0,2.6,33,0.00,,CLR,0.00,VWS V14.01,2013-07-06 19:50:00,
2013-07-06 14:52:00,86.3,53.8,29.98,SSE,158,0.0,5.2,33,0.00,,CLR,0.00,VWS V14.01,2013-07-06 19:52:00,
2013-07-06 14:53:00,86.3,53.8,29.98,SSE,158,0.0,5.2,33,0.00,,FEW049,0.00,VWS V14.01,2013-07-06 19:53:00,
2013-07-06 14:54:00,86.1,52.8,29.98,SSE,158,0.0,0.0,32,0.00,,FEW049,0.00,VWS V14.01,2013-07-06 19:54:00,
2013-07-06 14:56:00,86.3,53.0,29.98,South,180,0.0,0.0,32,0.00,,CLR,0.00,VWS V14.01,2013-07-06 19:56:00,
2013-07-06 14:58:00,86.3,53.8,29.98,South,180,0.0,5.2,33,0.00,,CLR,0.00,VWS V14.01,2013-07-06 19:58:00,
2013-07-06 14:59:00,86.3,53.8,29.98,South,180,0.0,5.2,33,0.00,,FEW049,0.00,VWS V14.01,2013-07-06 19:59:00,
2013-07-06 15:00:00,86.3,53.8,29.98,South,180,0.0,0.0,33,0.00,,CLR,0.00,VWS V14.01,2013-07-06 20:00:00,
2013-07-06 15:01:00,86.3,53.8,29.98,South,180,0.0,0.0,33,0.00,,FEW049,0.00,VWS V14.01,2013-07-06 20:01:00,
2013-07-06 15:02:00,86.3,54.7,29.98,SE,135,0.0,0.0,34,0.00,,CLR,0.00,VWS V14.01,2013-07-06 20:02:00,
2013-07-06 15:03:00,86.3,54.7,29.98,SE,135,0.0,0.0,34,0.00,,FEW049,0.00,VWS V14.01,2013-07-06 20:03:00,
2013-07-06 15:04:00,86.3,54.7,29.97,SE,135,0.0,0.0,34,0.00,,FEW049,0.00,VWS V14.01,2013-07-06 20:04:00,
2013-07-06 15:06:00,86.5,55.6,29.97,ESE,112,0.0,0.0,35,0.00,,CLR,0.00,VWS V14.01,2013-07-06 20:06:00,
2013-07-06 15:07:00,86.5,55.6,29.97,South,180,8.8,8.8,35,0.00,,FEW049,0.00,VWS V14.01,2013-07-06 20:07:00,
2013-07-06 15:08:00,86.5,55.6,29.97,South,180,0.0,8.8,35,0.00,,CLR,0.00,VWS V14.01,2013-07-06 20:08:00,
2013-07-06 15:10:00,86.5,54.8,29.97,SSW,202,0.0,0.0,34,0.00,,FEW049,0.00,VWS V14.01,2013-07-06 20:10:00,
2013-07-06 15:12:00,86.5,54.8,29.97,South,180,0.0,5.8,34,0.00,,CLR,0.00,VWS V14.01,2013-07-06 20:12:00,
2013-07-06 15:14:00,86.3,54.7,29.97,SW,225,0.0,4.8,34,0.00,,CLR,0.00,VWS V14.01,2013-07-06 20:14:00,
2013-07-06 15:15:00,86.3,54.7,29.97,SW,225,0.0,0.0,34,0.00,,FEW049,0.00,VWS V14.01,2013-07-06 20:15:00,
2013-07-06 15:16:00,86.3,54.7,29.97,SSE,158,0.0,0.0,34,0.00,,FEW049,0.00,VWS V14.01,2013-07-06 20:16:00,
2013-07-06 15:17:00,86.5,54.8,29.97,SSW,202,0.0,0.0,34,0.00,,FEW049,0.00,VWS V14.01,2013-07-06 20:17:00,
2013-07-06 15:18:00,86.3,54.7,29.97,SE,135,0.0,0.0,34,0.00,,CLR,0.00,VWS V14.01,2013-07-06 20:18:00,
2013-07-06 15:20:00,86.5,54.8,29.97,South,180,7.0,7.0,34,0.00,,CLR,0.00,VWS V14.01,2013-07-06 20:20:00,
2013-07-06 15:21:00,86.5,54.8,29.97,South,180,7.0,7.0,34,0.00,,FEW049,0.00,VWS V14.01,2013-07-06 20:21:00,
2013-07-06 15:22:00,86.5,54.8,29.97,SSE,158,0.0,7.0,34,0.00,,FEW049,0.00,VWS V14.01,2013-07-06 20:22:00,
2013-07-06 15:24:00,86.5,54.0,29.97,South,180,0.0,0.0,33,0.00,,CLR,0.00,VWS V14.01,2013-07-06 20:24:00,
2013-07-06 15:25:00,86.5,54.0,29.97,South,180,0.0,0.0,33,0.00,,FEW049,0.00,VWS V14.01,2013-07-06 20:25:00,
2013-07-06 15:26:00,86.5,54.8,29.97,SSW,202,0.0,0.0,34,0.00,,CLR,0.00,VWS V14.01,2013-07-06 20:26:00,
2013-07-06 15:28:00,86.7,55.0,29.97,SW,225,0.0,0.0,34,0.00,,FEW049,0.00,VWS V14.01,2013-07-06 20:28:00,
2013-07-06 15:30:00,86.7,55.0,29.97,SW,225,0.0,0.0,34,0.00,,CLR,0.00,VWS V14.01,2013-07-06 20:30:00,
2013-07-06 15:31:00,86.7,55.0,29.97,SW,225,0.0,0.0,34,0.00,,FEW049,0.00,VWS V14.01,2013-07-06 20:31:00,
2013-07-06 15:32:00,86.7,54.2,29.97,South,180,0.0,0.0,33,0.00,,CLR,0.00,VWS V14.01,2013-07-06 20:32:00,
2013-07-06 15:33:00,86.7,54.2,29.97,South,180,0.0,0.0,33,0.00,,FEW049,0.00,VWS V14.01,2013-07-06 20:33:00,
2013-07-06 15:34:00,86.7,54.2,29.97,South,180,8.0,8.0,33,0.00,,FEW049,0.00,VWS V14.01,2013-07-06 20:34:00,
2013-07-06 15:36:00,86.9,53.5,29.97,SSE,158,3.0,3.0,32,0.00,,CLR,0.00,VWS V14.01,2013-07-06 20:36:00,
2013-07-06 15:38:00,86.9,53.5,29.97,SSW,202,0.0,3.0,32,0.00,,CLR,0.00,VWS V14.01,2013-07-06 20:38:00,
2013-07-06 15:39:00,86.9,53.5,29.97,SSW,202,0.0,0.0,32,0.00,,FEW049,0.00,VWS V14.01,2013-07-06 20:39:00,
2013-07-06 15:40:00,86.9,55.2,29.97,North,0,0.0,0.4,34,0.00,,CLR,0.00,VWS V14.01,2013-07-06 20:40:00,
2013-07-06 15:42:00,86.9,54.4,29.97,SE,135,0.0,0.0,33,0.00,,CLR,0.00,VWS V14.01,2013-07-06 20:42:00,
2013-07-06 15:43:00,86.9,54.4,29.97,SE,135,0.0,0.0,33,0.00,,FEW055,0.00,VWS V14.01,2013-07-06 20:43:00,
2013-07-06 15:44:00,86.9,54.4,29.97,SSE,158,0.0,0.0,33,0.00,,CLR,0.00,VWS V14.01,2013-07-06 20:44:00,
2013-07-06 15:45:00,86.9,54.4,29.97,SSE,158,0.0,0.0,33,0.00,,FEW055,0.00,VWS V14.01,2013-07-06 20:45:00,
2013-07-06 15:46:00,86.9,54.4,29.97,ESE,112,0.0,0.0,33,0.00,,CLR,0.00,VWS V14.01,2013-07-06 20:46:00,
2013-07-06 15:48:00,86.9,54.4,29.97,SSE,158,0.0,0.0,33,0.00,,FEW055,0.00,VWS V14.01,2013-07-06 20:48:00,
2013-07-06 15:50:00,86.9,53.5,29.97,ESE,112,0.0,0.0,32,0.00,,CLR,0.00,VWS V14.01,2013-07-06 20:50:00,
2013-07-06 15:51:00,86.9,53.5,29.97,ESE,112,0.0,0.0,32,0.00,,FEW055,0.00,VWS V14.01,2013-07-06 20:51:00,
2013-07-06 15:52:00,86.9,54.4,29.97,SSE,158,7.0,7.0,33,0.00,,FEW055,0.00,VWS V14.01,2013-07-06 20:52:00,
2013-07-06 15:53:00,86.9,53.5,29.97,South,180,8.0,8.0,32,0.00,,FEW055,0.00,VWS V14.01,2013-07-06 20:53:00,
2013-07-06 15:54:00,86.7,53.3,29.97,SSE,158,0.0,8.0,32,0.00,,CLR,0.00,VWS V14.01,2013-07-06 20:54:00,
2013-07-06 15:56:00,86.9,54.4,29.97,SSE,158,7.6,7.6,33,0.00,,CLR,0.00,VWS V14.01,2013-07-06 20:56:00,
2013-07-06 15:58:00,86.7,54.2,29.97,SSE,158,0.0,7.6,33,0.00,,FEW055,0.00,VWS V14.01,2013-07-06 20:58:00,
2013-07-06 15:59:00,86.7,54.2,29.97,SSE,158,0.0,7.6,33,0.00,,FEW055,0.00,VWS V14.01,2013-07-06 20:59:00,
2013-07-06 16:00:00,86.7,54.2,29.97,ESE,112,1.6,11.0,33,0.00,,CLR,0.00,VWS V14.01,2013-07-06 21:00:00,
2013-07-06 16:02:00,86.7,54.2,29.97,ESE,112,0.0,1.6,33,0.00,,CLR,0.00,VWS V14.01,2013-07-06 21:02:00,
2013-07-06 16:04:00,86.7,54.2,29.97,SE,135,0.0,0.0,33,0.00,,CLR,0.00,VWS V14.01,2013-07-06 21:04:00,
2013-07-06 16:05:00,86.7,54.2,29.97,SE,135,0.0,0.0,33,0.00,,FEW055,0.00,VWS V14.01,2013-07-06 21:05:00,
2013-07-06 16:06:00,86.7,54.2,29.97,SE,135,0.0,0.0,33,0.00,,FEW055,0.00,VWS V14.01,2013-07-06 21:06:00,
2013-07-06 16:08:00,86.7,53.3,29.97,South,180,0.0,0.0,32,0.00,,CLR,0.00,VWS V14.01,2013-07-06 21:08:00,
2013-07-06 16:10:00,86.7,54.2,29.96,SE,135,0.0,0.0,33,0.00,,FEW055,0.00,VWS V14.01,2013-07-06 21:10:00,
2013-07-06 16:12:00,86.7,54.2,29.96,South,180,0.0,4.8,33,0.00,,CLR,0.00,VWS V14.01,2013-07-06 21:12:00,
2013-07-06 16:13:00,86.7,54.2,29.96,South,180,0.0,4.8,33,0.00,,FEW055,0.00,VWS V14.01,2013-07-06 21:13:00,
2013-07-06 16:14:00,86.7,54.2,29.96,South,180,0.0,0.0,33,0.00,,CLR,0.00,VWS V14.01,2013-07-06 21:14:00,
2013-07-06 16:16:00,86.7,55.0,29.97,SE,135,0.0,0.0,34,0.00,,CLR,0.00,VWS V14.01,2013-07-06 21:16:00,
2013-07-06 16:17:00,86.7,55.0,29.97,SE,135,0.0,0.0,34,0.00,,FEW055,0.00,VWS V14.01,2013-07-06 21:17:00,
2013-07-06 16:18:00,86.9,55.2,29.97,SSE,158,0.0,0.0,34,0.00,,FEW055,0.00,VWS V14.01,2013-07-06 21:18:00,
2013-07-06 16:20:00,86.7,54.2,29.97,SSE,158,0.0,0.0,33,0.00,,CLR,0.00,VWS V14.01,2013-07-06 21:20:00,
2013-07-06 16:22:00,86.7,54.2,29.97,South,180,0.0,0.0,33,0.00,,FEW055,0.00,VWS V14.01,2013-07-06 21:22:00,
2013-07-06 16:24:00,86.7,54.2,29.97,SSW,202,0.0,0.0,33,0.00,,FEW055,0.00,VWS V14.01,2013-07-06 21:24:00,
2013-07-06 16:26:00,86.9,54.4,29.97,South,180,2.2,2.2,33,0.00,,FEW055,0.00,VWS V14.01,2013-07-06 21:26:00,
2013-07-06 16:27:00,86.7,54.2,29.97,ESE,112,3.4,3.4,33,0.00,,FEW055,0.00,VWS V14.01,2013-07-06 21:27:00,
2013-07-06 16:28:00,86.7,54.2,29.97,SSE,158,5.8,8.4,33,0.00,,CLR,0.00,VWS V14.01,2013-07-06 21:28:00,
2013-07-06 16:30:00,86.5,54.0,29.97,SSE,158,0.0,8.8,33,0.00,,CLR,0.00,VWS V14.01,2013-07-06 21:30:00,
2013-07-06 16:32:00,86.5,54.0,29.97,South,180,5.8,5.8,33,0.00,,CLR,0.00,VWS V14.01,2013-07-06 21:32:00,
2013-07-06 16:33:00,86.5,54.0,29.97,South,180,5.8,5.8,33,0.00,,FEW055,0.00,VWS V14.01,2013-07-06 21:33:00,
2013-07-06 16:34:00,86.5,54.0,29.96,SSE,158,0.0,5.8,33,0.00,,CLR,0.00,VWS V14.01,2013-07-06 21:34:00,
2013-07-06 16:36:00,86.7,54.2,29.96,South,180,0.0,0.0,33,0.00,,CLR,0.00,VWS V14.01,2013-07-06 21:36:00,
2013-07-06 16:38:00,86.7,54.2,29.97,SSE,158,0.0,0.0,33,0.00,,FEW055,0.00,VWS V14.01,2013-07-06 21:38:00,
2013-07-06 16:39:00,86.7,54.2,29.97,SSE,158,8.0,8.0,33,0.00,,FEW055,0.00,VWS V14.01,2013-07-06 21:39:00,
2013-07-06 16:40:00,86.7,54.2,29.96,SSE,158,0.0,8.0,33,0.00,,CLR,0.00,VWS V14.01,2013-07-06 21:40:00,
2013-07-06 16:42:00,86.7,54.2,29.96,SSE,158,0.0,0.0,33,0.00,,CLR,0.00,VWS V14.01,2013-07-06 21:42:00,
2013-07-06 16:44:00,86.7,55.0,29.96,SSE,158,0.0,0.0,34,0.00,,SCT055,0.00,VWS V14.01,2013-07-06 21:44:00,
2013-07-06 16:45:00,86.7,55.0,29.96,SSE,158,0.0,0.0,34,0.00,,SCT055,0.00,VWS V14.01,2013-07-06 21:45:00,
2013-07-06 16:46:00,86.7,55.0,29.96,South,180,0.0,0.0,34,0.00,,SCT055,0.00,VWS V14.01,2013-07-06 21:46:00,
2013-07-06 16:48:00,86.7,54.2,29.96,South,180,0.0,3.0,33,0.00,,CLR,0.00,VWS V14.01,2013-07-06 21:48:00,
2013-07-06 16:50:00,86.9,54.4,29.96,South,180,2.2,2.2,33,0.00,,SCT055,0.00,VWS V14.01,2013-07-06 21:50:00,
2013-07-06 16:52:00,86.7,53.3,29.96,SE,135,3.4,3.4,32,0.00,,SCT055,0.00,VWS V14.01,2013-07-06 21:52:00,
2013-07-06 16:53:00,86.7,53.3,29.96,South,180,0.0,3.4,32,0.00,,SCT055,0.00,VWS V14.01,2013-07-06 21:53:00,
2013-07-06 16:54:00,86.7,53.3,29.96,SSE,158,0.0,0.0,32,0.00,,CLR,0.00,VWS V14.01,2013-07-06 21:54:00,
2013-07-06 16:56:00,86.9,53.5,29.96,ESE,112,0.0,1.6,32,0.00,,CLR,0.00,VWS V14.01,2013-07-06 21:56:00,
2013-07-06 16:57:00,86.9,53.5,29.96,ESE,112,0.0,0.0,32,0.00,,SCT055,0.00,VWS V14.01,2013-07-06 21:57:00,
2013-07-06 16:58:00,86.7,53.3,29.96,South,180,0.0,0.0,32,0.00,,CLR,0.00,VWS V14.01,2013-07-06 21:58:00,
2013-07-06 16:59:00,86.7,53.3,29.96,South,180,0.0,0.0,32,0.00,,SCT055,0.00,VWS V14.01,2013-07-06 21:59:00,
2013-07-06 17:00:00,86.7,54.2,29.96,South,180,0.0,0.0,33,0.00,,SCT055,0.00,VWS V14.01,2013-07-06 22:00:00,
2013-07-06 17:02:00,86.7,53.3,29.96,SSE,158,0.0,5.8,32,0.00,,CLR,0.00,VWS V14.01,2013-07-06 22:02:00,
2013-07-06 17:04:00,86.7,53.3,29.96,WSW,248,0.0,4.0,32,0.00,,CLR,0.00,VWS V14.01,2013-07-06 22:04:00,
2013-07-06 17:06:00,86.7,54.2,29.96,South,180,0.0,0.0,33,0.00,,SCT055,0.00,VWS V14.01,2013-07-06 22:06:00,
2013-07-06 17:07:00,86.7,54.2,29.96,SSE,158,0.0,0.0,33,0.00,,SCT055,0.00,VWS V14.01,2013-07-06 22:07:00,
2013-07-06 17:08:00,86.7,54.2,29.96,ESE,112,0.0,0.0,33,0.00,,CLR,0.00,VWS V14.01,2013-07-06 22:08:00,
2013-07-06 17:10:00,86.7,54.2,29.96,South,180,0.0,0.0,33,0.00,,SCT055,0.00,VWS V14.01,2013-07-06 22:10:00,
2013-07-06 17:12:00,86.7,53.3,29.96,South,180,0.0,0.0,32,0.00,,SCT055,0.00,VWS V14.01,2013-07-06 22:12:00,
2013-07-06 17:14:00,86.7,53.3,29.95,SE,135,0.0,8.8,32,0.00,,CLR,0.00,VWS V14.01,2013-07-06 22:14:00,
2013-07-06 17:16:00,86.7,53.3,29.95,South,180,0.0,0.0,32,0.00,,CLR,0.00,VWS V14.01,2013-07-06 22:16:00,
2013-07-06 17:17:00,86.7,53.3,29.95,South,180,0.0,0.0,32,0.00,,SCT055,0.00,VWS V14.01,2013-07-06 22:17:00,
2013-07-06 17:18:00,86.7,53.3,29.95,South,180,0.0,7.6,32,0.00,,CLR,0.00,VWS V14.01,2013-07-06 22:18:00,
2013-07-06 17:19:00,86.7,53.3,29.95,South,180,0.0,0.0,32,0.00,,SCT055,0.00,VWS V14.01,2013-07-06 22:19:00,
2013-07-06 17:20:00,86.7,53.3,29.95,South,180,0.0,0.0,32,0.00,,CLR,0.00,VWS V14.01,2013-07-06 22:20:00,
2013-07-06 17:22:00,86.7,53.3,29.95,SSE,158,1.6,1.6,32,0.00,,SCT055,0.00,VWS V14.01,2013-07-06 22:22:00,
2013-07-06 17:24:00,86.7,53.3,29.95,South,180,0.0,0.0,32,0.00,,SCT055,0.00,VWS V14.01,2013-07-06 22:24:00,
2013-07-06 17:25:00,86.7,53.3,29.95,SSE,158,0.0,0.0,32,0.00,,SCT055,0.00,VWS V14.01,2013-07-06 22:25:00,
2013-07-06 17:26:00,86.7,53.3,29.95,SSW,202,0.0,0.0,32,0.00,,CLR,0.00,VWS V14.01,2013-07-06 22:26:00,
2013-07-06 17:28:00,86.7,53.3,29.95,SE,135,0.0,11.0,32,0.00,,CLR,0.00,VWS V14.01,2013-07-06 22:28:00,
2013-07-06 17:29:00,86.7,53.3,29.95,SE,135,0.0,0.0,32,0.00,,SCT055,0.00,VWS V14.01,2013-07-06 22:29:00,
2013-07-06 17:30:00,86.7,53.3,29.95,South,180,0.0,0.0,32,0.00,,SCT055,0.00,VWS V14.01,2013-07-06 22:30:00,
2013-07-06 17:32:00,86.9,52.7,29.95,SSW,202,2.2,2.2,31,0.00,,CLR,0.00,VWS V14.01,2013-07-06 22:32:00,
2013-07-06 17:34:00,86.7,53.3,29.95,SSE,158,0.0,2.2,32,0.00,,CLR,0.00,VWS V14.01,2013-07-06 22:34:00,
2013-07-06 17:35:00,86.7,53.3,29.95,SSE,158,0.0,2.2,32,0.00,,SCT055,0.00,VWS V14.01,2013-07-06 22:35:00,
2013-07-06 17:36:00,86.9,54.4,29.95,South,180,2.6,2.6,33,0.00,,CLR,0.00,VWS V14.01,2013-07-06 22:36:00,
2013-07-06 17:38:00,86.7,54.2,29.95,SSE,158,0.0,2.6,33,0.00,,CLR,0.00,VWS V14.01,2013-07-06 22:38:00,
2013-07-06 17:39:00,86.7,54.2,29.95,SSE,158,0.0,2.6,33,0.00,,SCT055,0.00,VWS V14.01,2013-07-06 22:39:00,
2013-07-06 17:40:00,86.7,53.3,29.95,SSE,158,0.0,0.0,32,0.00,,SCT080,0.00,VWS V14.01,2013-07-06 22:40:00,
2013-07-06 17:42:00,86.7,53.3,29.95,South,180,10.6,10.6,32,0.00,,CLR,0.00,VWS V14.01,2013-07-06 22:42:00,
2013-07-06 17:44:00,86.7,53.3,29.94,SSW,202,0.0,10.6,32,0.00,,CLR,0.00,VWS V14.01,2013-07-06 22:44:00,
2013-07-06 17:45:00,86.7,53.3,29.94,SSW,202,0.0,0.0,32,0.00,,SCT080,0.00,VWS V14.01,2013-07-06 22:45:00,
2013-07-06 17:46:00,86.3,53.8,29.94,SSE,158,0.0,2.2,33,0.00,,CLR,0.00,VWS V14.01,2013-07-06 22:46:00,
2013-07-06 17:47:00,86.3,53.8,29.94,SSE,158,0.0,0.0,33,0.00,,SCT080,0.00,VWS V14.01,2013-07-06 22:47:00,
2013-07-06 17:48:00,86.3,53.8,29.94,SW,225,0.0,0.0,33,0.00,,SCT080,0.00,VWS V14.01,2013-07-06 22:48:00,
2013-07-06 17:50:00,86.7,54.2,29.94,SSE,158,0.0,4.0,33,0.00,,SCT080,0.00,VWS V14.01,2013-07-06 22:50:00,
2013-07-06 17:52:00,86.5,54.0,29.95,South,180,0.0,4.0,33,0.00,,CLR,0.00,VWS V14.01,2013-07-06 22:52:00,
2013-07-06 17:53:00,86.5,54.0,29.95,South,180,0.0,4.0,33,0.00,,SCT080,0.00,VWS V14.01,2013-07-06 22:53:00,
2013-07-06 17:54:00,86.5,54.0,29.94,SSW,202,8.4,8.4,33,0.00,,CLR,0.00,VWS V14.01,2013-07-06 22:54:00,
2013-07-06 17:56:00,86.3,53.8,29.95,SSE,158,1.2,8.4,33,0.00,,CLR,0.00,VWS V14.01,2013-07-06 22:56:00,
2013-07-06 17:58:00,86.7,54.2,29.95,ESE,112,0.0,1.2,33,0.00,,SCT080,0.00,VWS V14.01,2013-07-06 22:58:00,
2013-07-06 17:59:00,86.5,54.0,29.95,SSW,202,0.0,0.0,33,0.00,,SCT080,0.00,VWS V14.01,2013-07-06 22:59:00,
2013-07-06 18:00:00,86.3,53.8,29.94,SSW,202,0.0,5.2,33,0.00,,CLR,0.00,VWS V14.01,2013-07-06 23:00:00,
2013-07-06 18:02:00,86.5,54.0,29.95,WSW,248,0.0,0.0,33,0.00,,CLR,0.00,VWS V14.01,2013-07-06 23:02:00,
2013-07-06 18:04:00,86.9,54.4,29.94,SSE,158,9.2,9.2,33,0.00,,CLR,0.00,VWS V14.01,2013-07-06 23:04:00,
2013-07-06 18:05:00,86.9,54.4,29.94,SSE,158,9.2,9.2,33,0.00,,SCT080,0.00,VWS V14.01,2013-07-06 23:05:00,
2013-07-06 18:06:00,86.7,54.2,29.95,South,180,11.0,11.0,33,0.00,,CLR,0.00,VWS V14.01,2013-07-06 23:06:00,
2013-07-06 18:07:00,86.7,54.2,29.95,South,180,11.0,11.0,33,0.00,,SCT080,0.00,VWS V14.01,2013-07-06 23:07:00,
2013-07-06 18:08:00,86.9,53.5,29.95,South,180,8.0,11.0,32,0.00,,SCT080,0.00,VWS V14.01,2013-07-06 23:08:00,
2013-07-06 18:10:00,86.7,54.2,29.94,SSW,202,0.0,0.0,33,0.00,,CLR,0.00,VWS V14.01,2013-07-06 23:10:00,
2013-07-06 18:12:00,86.5,54.0,29.95,SSE,158,5.8,5.8,33,0.00,,CLR,0.00,VWS V14.01,2013-07-06 23:12:00,
2013-07-06 18:13:00,86.5,54.0,29.95,SSE,158,5.8,5.8,33,0.00,,SCT080,0.00,VWS V14.01,2013-07-06 23:13:00,
2013-07-06 18:14:00,86.3,53.0,29.95,South,180,0.0,5.8,32,0.00,,SCT080,0.00,VWS V14.01,2013-07-06 23:14:00,
2013-07-06 18:16:00,86.3,53.8,29.95,South,180,1.6,1.6,33,0.00,,CLR,0.00,VWS V14.01,2013-07-06 23:16:00,
2013-07-06 18:18:00,86.1,53.7,29.95,SSW,202,0.0,1.6,33,0.00,,CLR,0.00,VWS V14.01,2013-07-06 23:18:00,
2013-07-06 18:19:00,86.1,53.7,29.95,SSW,202,0.0,0.0,33,0.00,,SCT080,0.00,VWS V14.01,2013-07-06 23:19:00,
2013-07-06 18:20:00,86.1,53.7,29.95,South,180,0.0,0.0,33,0.00,,CLR,0.00,VWS V14.01,2013-07-06 23:20:00,
2013-07-06 18:22:00,86.1,53.7,29.95,South,180,0.0,0.0,33,0.00,,CLR,0.00,VWS V14.01,2013-07-06 23:22:00,
2013-07-06 18:23:00,86.1,53.7,29.95,South,180,0.0,0.0,33,0.00,,SCT080,0.00,VWS V14.01,2013-07-06 23:23:00,
2013-07-06 18:24:00,86.0,53.6,29.95,South,180,4.4,4.4,33,0.00,,CLR,0.00,VWS V14.01,2013-07-06 23:24:00,
2013-07-06 18:26:00,86.1,54.5,29.95,SSE,158,0.0,4.4,34,0.00,,SCT080,0.00,VWS V14.01,2013-07-06 23:26:00,
2013-07-06 18:27:00,86.0,54.4,29.95,SE,135,0.0,0.0,34,0.00,,SCT080,0.00,VWS V14.01,2013-07-06 23:27:00,
2013-07-06 18:28:00,86.0,53.6,29.95,SSW,202,4.0,4.0,33,0.00,,CLR,0.00,VWS V14.01,2013-07-06 23:28:00,
2013-07-06 18:30:00,85.6,53.2,29.95,SSW,202,0.0,4.0,33,0.00,,CLR,0.00,VWS V14.01,2013-07-06 23:30:00,
2013-07-06 18:31:00,85.6,53.2,29.95,SSW,202,0.0,4.0,33,0.00,,SCT080,0.00,VWS V14.01,2013-07-06 23:31:00,
2013-07-06 18:32:00,85.6,53.2,29.95,SSW,202,0.0,7.0,33,0.00,,CLR,0.00,VWS V14.01,2013-07-06 23:32:00,
2013-07-06 18:33:00,85.6,53.2,29.95,SSW,202,0.0,0.0,33,0.00,,SCT080,0.00,VWS V14.01,2013-07-06 23:33:00,
2013-07-06 18:34:00,85.4,53.1,29.95,SSW,202,0.0,0.0,33,0.00,,CLR,0.00,VWS V14.01,2013-07-06 23:34:00,
2013-07-06 18:36:00,85.6,53.2,29.94,SSE,158,0.0,0.0,33,0.00,,CLR,0.00,VWS V14.01,2013-07-06 23:36:00,
2013-07-06 18:37:00,85.6,53.2,29.94,SSE,158,0.0,0.0,33,0.00,,SCT080,0.00,VWS V14.01,2013-07-06 23:37:00,
2013-07-06 18:38:00,85.6,53.2,29.94,South,180,0.0,0.0,33,0.00,,SCT080,0.00,VWS V14.01,2013-07-06 23:38:00,
2013-07-06 18:40:00,85.4,53.9,29.94,SSE,158,0.0,5.8,34,0.00,,CLR,0.00,VWS V14.01,2013-07-06 23:40:00,
2013-07-06 18:41:00,85.4,53.9,29.94,SSE,158,0.0,0.0,34,0.00,,FEW060,0.00,VWS V14.01,2013-07-06 23:41:00,
2013-07-06 18:42:00,85.4,53.9,29.94,South,180,2.6,2.6,34,0.00,,CLR,0.00,VWS V14.01,2013-07-06 23:42:00,
2013-07-06 18:43:00,85.4,53.9,29.94,South,180,2.6,2.6,34,0.00,,FEW060,0.00,VWS V14.01,2013-07-06 23:43:00,
2013-07-06 18:44:00,85.4,53.9,29.94,SSE,158,0.0,2.6,34,0.00,,CLR,0.00,VWS V14.01,2013-07-06 23:44:00,
2013-07-06 18:46:00,85.2,53.7,29.95,SE,135,10.6,10.6,34,0.00,,CLR,0.00,VWS V14.01,2013-07-06 23:46:00,
2013-07-06 18:47:00,85.2,53.7,29.95,SE,135,10.6,10.6,34,0.00,,FEW060,0.00,VWS V14.01,2013-07-06 23:47:00,
2013-07-06 18:48:00,85.2,53.7,29.95,SSW,202,0.0,10.6,34,0.00,,CLR,0.00,VWS V14.01,2013-07-06 23:48:00,
2013-07-06 18:49:00,85.2,53.7,29.95,SSW,202,0.0,10.6,34,0.00,,FEW060,0.00,VWS V14.01,2013-07-06 23:49:00,
2013-07-06 18:50:00,85.1,54.4,29.94,SSE,158,5.8,5.8,35,0.00,,FEW060,0.00,VWS V14.01,2013-07-06 23:50:00,
2013-07-06 18:52:00,84.9,54.2,29.95,SSW,202,10.6,10.6,35,0.00,,CLR,0.00,VWS V14.01,2013-07-06 23:52:00,
2013-07-06 18:53:00,84.9,54.2,29.95,SSW,202,10.6,10.6,35,0.00,,FEW060,0.00,VWS V14.01,2013-07-06 23:53:00,
2013-07-06 18:54:00,84.9,54.2,29.94,South,180,0.0,10.6,35,0.00,,CLR,0.00,VWS V14.01,2013-07-06 23:54:00,
2013-07-06 18:55:00,84.9,54.2,29.94,South,180,0.0,0.0,35,0.00,,FEW060,0.00,VWS V14.01,2013-07-06 23:55:00,
2013-07-06 18:56:00,84.7,54.8,29.94,South,180,4.8,4.8,36,0.00,,CLR,0.00,VWS V14.01,2013-07-06 23:56:00,
2013-07-06 18:58:00,84.9,55.0,29.95,SE,135,0.0,4.8,36,0.00,,FEW060,0.00,VWS V14.01,2013-07-06 23:58:00,
2013-07-06 19:00:00,84.7,54.8,29.95,South,180,0.0,0.0,36,0.00,,CLR,0.00,VWS V14.01,2013-07-07 00:00:00,
2013-07-06 19:01:00,84.7,54.8,29.95,South,180,0.0,0.0,36,0.00,,FEW060,0.00,VWS V14.01,2013-07-07 00:01:00,
2013-07-06 19:02:00,84.7,54.8,29.95,SE,135,6.2,6.2,36,0.00,,CLR,0.00,VWS V14.01,2013-07-07 00:02:00,
2013-07-06 19:04:00,84.7,54.8,29.95,SSE,158,0.0,6.2,36,0.00,,FEW060,0.00,VWS V14.01,2013-07-07 00:04:00,
2013-07-06 19:06:00,84.7,54.8,29.95,South,180,0.0,0.0,36,0.00,,FEW060,0.00,VWS V14.01,2013-07-07 00:06:00,
2013-07-06 19:08:00,84.5,54.7,29.95,SSE,158,0.0,0.0,36,0.00,,CLR,0.00,VWS V14.01,2013-07-07 00:08:00,
2013-07-06 19:09:00,84.5,54.6,29.95,SSE,158,0.0,0.0,36,0.00,,FEW060,0.00,VWS V14.01,2013-07-07 00:09:00,
2013-07-06 19:10:00,84.5,54.7,29.95,South,180,0.0,0.0,36,0.00,,CLR,0.00,VWS V14.01,2013-07-07 00:10:00,
2013-07-06 19:12:00,84.5,54.6,29.95,West,270,0.0,0.0,36,0.00,,CLR,0.00,VWS V14.01,2013-07-07 00:12:00,
2013-07-06 19:14:00,84.3,54.5,29.95,South,180,0.0,2.6,36,0.00,,CLR,0.00,VWS V14.01,2013-07-07 00:14:00,
2013-07-06 19:16:00,84.3,54.5,29.95,SSE,158,0.0,0.0,36,0.00,,CLR,0.00,VWS V14.01,2013-07-07 00:16:00,
2013-07-06 19:18:00,84.3,54.5,29.95,South,180,0.0,0.0,36,0.00,,CLR,0.00,VWS V14.01,2013-07-07 00:18:00,
2013-07-06 19:20:00,84.3,55.2,29.95,South,180,0.0,0.0,37,0.00,,CLR,0.00,VWS V14.01,2013-07-07 00:20:00,
2013-07-06 19:21:00,84.3,55.2,29.95,South,180,0.0,0.0,37,0.00,,CLR,0.00,VWS V14.01,2013-07-07 00:21:00,
2013-07-06 19:22:00,84.0,55.0,29.95,SSE,158,0.0,0.0,37,0.00,,CLR,0.00,VWS V14.01,2013-07-07 00:22:00,
2013-07-06 19:24:00,84.3,55.2,29.95,SSE,158,0.0,10.2,37,0.00,,CLR,0.00,VWS V14.01,2013-07-07 00:24:00,
2013-07-06 19:26:00,83.8,54.8,29.95,SSW,202,5.8,5.8,37,0.00,,CLR,0.00,VWS V14.01,2013-07-07 00:26:00,
2013-07-06 19:28:00,84.2,55.9,29.95,SSE,158,0.0,5.8,38,0.00,,CLR,0.00,VWS V14.01,2013-07-07 00:28:00,
2013-07-06 19:30:00,83.8,55.5,29.95,SSE,158,0.0,0.0,38,0.00,,CLR,0.00,VWS V14.01,2013-07-07 00:30:00,
2013-07-06 19:31:00,83.8,55.5,29.95,SSE,158,0.0,0.0,38,0.00,,CLR,0.00,VWS V14.01,2013-07-07 00:31:00,
2013-07-06 19:32:00,83.8,55.5,29.95,SSW,202,1.6,1.6,38,0.00,,CLR,0.00,VWS V14.01,2013-07-07 00:32:00,
2013-07-06 19:34:00,83.8,55.5,29.95,SSE,158,0.0,1.6,38,0.00,,CLR,0.00,VWS V14.01,2013-07-07 00:34:00,
2013-07-06 19:36:00,83.8,55.5,29.95,South,180,0.0,0.0,38,0.00,,CLR,0.00,VWS V14.01,2013-07-07 00:36:00,
2013-07-06 19:38:00,83.6,56.0,29.95,South,180,0.0,10.2,39,0.00,,CLR,0.00,VWS V14.01,2013-07-07 00:38:00,
2013-07-06 19:40:00,83.4,55.9,29.95,SSE,158,0.0,5.2,39,0.00,,CLR,0.00,VWS V14.01,2013-07-07 00:40:00,
2013-07-06 19:41:00,83.4,55.9,29.95,SSE,158,0.0,5.2,39,0.00,,CLR,0.00,VWS V14.01,2013-07-07 00:41:00,
2013-07-06 19:42:00,83.6,56.0,29.95,SSE,158,0.0,0.0,39,0.00,,CLR,0.00,VWS V14.01,2013-07-07 00:42:00,
2013-07-06 19:43:00,83.6,56.0,29.95,SSE,158,0.0,0.0,39,0.00,,CLR,0.00,VWS V14.01,2013-07-07 00:43:00,
2013-07-06 19:44:00,83.3,55.8,29.95,SSW,202,4.4,4.4,39,0.00,,CLR,0.00,VWS V14.01,2013-07-07 00:44:00,
2013-07-06 19:46:00,83.1,55.6,29.95,South,180,10.6,10.6,39,0.00,,CLR,0.00,VWS V14.01,2013-07-07 00:46:00,
2013-07-06 19:47:00,83.1,55.6,29.95,South,180,10.6,10.6,39,0.00,,CLR,0.00,VWS V14.01,2013-07-07 00:47:00,
2013-07-06 19:48:00,83.3,56.5,29.95,SSE,158,0.0,10.6,40,0.00,,CLR,0.00,VWS V14.01,2013-07-07 00:48:00,
2013-07-06 19:49:00,83.3,56.5,29.95,SSE,158,0.0,10.6,40,0.00,,CLR,0.00,VWS V14.01,2013-07-07 00:49:00,
2013-07-06 19:50:00,83.1,56.3,29.96,South,180,0.0,0.0,40,0.00,,CLR,0.00,VWS V14.01,2013-07-07 00:50:00,
2013-07-06 19:52:00,83.1,56.3,29.95,ESE,112,0.0,0.0,40,0.00,,CLR,0.00,VWS V14.01,2013-07-07 00:52:00,
2013-07-06 19:53:00,83.1,56.3,29.95,SSE,158,0.0,0.0,40,0.00,,CLR,0.00,VWS V14.01,2013-07-07 00:53:00,
2013-07-06 19:54:00,83.1,56.3,29.95,SSE,158,0.0,0.0,40,0.00,,CLR,0.00,VWS V14.01,2013-07-07 00:54:00,
2013-07-06 19:56:00,82.9,56.1,29.95,East,90,0.0,0.0,40,0.00,,CLR,0.00,VWS V14.01,2013-07-07 00:56:00,
2013-07-06 19:58:00,82.9,56.1,29.95,South,180,0.0,0.0,40,0.00,,CLR,0.00,VWS V14.01,2013-07-07 00:58:00,
2013-07-06 20:00:00,82.7,56.0,29.96,SSE,158,0.0,0.0,40,0.00,,CLR,0.00,VWS V14.01,2013-07-07 01:00:00,
2013-07-06 20:01:00,82.7,56.0,29.96,SSE,158,0.0,0.0,40,0.00,,CLR,0.00,VWS V14.01,2013-07-07 01:01:00,
2013-07-06 20:02:00,82.5,56.5,29.96,SSE,158,0.0,0.0,41,0.00,,CLR,0.00,VWS V14.01,2013-07-07 01:02:00,
2013-07-06 20:03:00,82.5,56.5,29.96,SSE,158,0.0,0.0,41,0.00,,CLR,0.00,VWS V14.01,2013-07-07 01:03:00,
2013-07-06 20:04:00,82.5,56.5,29.96,SSE,158,0.0,0.0,41,0.00,,CLR,0.00,VWS V14.01,2013-07-07 01:04:00,
2013-07-06 20:06:00,82.5,56.5,29.96,SSE,158,0.0,0.0,41,0.00,,CLR,0.00,VWS V14.01,2013-07-07 01:06:00,
2013-07-06 20:07:00,82.5,56.5,29.96,SSE,158,0.0,0.0,41,0.00,,CLR,0.00,VWS V14.01,2013-07-07 01:07:00,
2013-07-06 20:08:00,82.4,56.4,29.96,South,180,5.8,5.8,41,0.00,,CLR,0.00,VWS V14.01,2013-07-07 01:08:00,
2013-07-06 20:09:00,82.4,56.4,29.96,South,180,5.8,5.8,41,0.00,,CLR,0.00,VWS V14.01,2013-07-07 01:09:00,
2013-07-06 20:10:00,82.2,56.2,29.96,SSW,202,2.6,5.8,41,0.00,,CLR,0.00,VWS V14.01,2013-07-07 01:10:00,
2013-07-06 20:12:00,82.2,56.2,29.96,SE,135,0.0,2.6,41,0.00,,CLR,0.00,VWS V14.01,2013-07-07 01:12:00,
2013-07-06 20:14:00,82.0,56.0,29.96,South,180,0.0,0.0,41,0.00,,CLR,0.00,VWS V14.01,2013-07-07 01:14:00,
2013-07-06 20:16:00,82.0,56.7,29.96,SSW,202,0.0,6.6,42,0.00,,CLR,0.00,VWS V14.01,2013-07-07 01:16:00,
2013-07-06 20:17:00,82.0,56.7,29.96,SSW,202,0.0,0.0,42,0.00,,CLR,0.00,VWS V14.01,2013-07-07 01:17:00,
2013-07-06 20:18:00,82.0,56.7,29.96,South,180,0.0,0.0,42,0.00,,CLR,0.00,VWS V14.01,2013-07-07 01:18:00,
2013-07-06 20:19:00,82.0,56.7,29.96,South,180,0.0,0.0,42,0.00,,CLR,0.00,VWS V14.01,2013-07-07 01:19:00,
2013-07-06 20:20:00,81.8,56.5,29.96,SSW,202,4.8,4.8,42,0.00,,CLR,0.00,VWS V14.01,2013-07-07 01:20:00,
2013-07-06 20:22:00,81.8,56.5,29.96,SSW,202,6.2,6.2,42,0.00,,CLR,0.00,VWS V14.01,2013-07-07 01:22:00,
2013-07-06 20:23:00,81.8,56.5,29.96,SSW,202,6.2,6.2,42,0.00,,CLR,0.00,VWS V14.01,2013-07-07 01:23:00,
2013-07-06 20:24:00,81.6,56.3,29.96,SSW,202,0.0,6.2,42,0.00,,CLR,0.00,VWS V14.01,2013-07-07 01:24:00,
2013-07-06 20:26:00,81.6,57.0,29.96,SSE,158,0.0,0.0,43,0.00,,CLR,0.00,VWS V14.01,2013-07-07 01:26:00,
2013-07-06 20:28:00,81.6,57.0,29.96,SW,225,0.0,0.0,43,0.00,,CLR,0.00,VWS V14.01,2013-07-07 01:28:00,
2013-07-06 20:29:00,81.6,57.0,29.96,SSW,202,0.0,0.0,43,0.00,,CLR,0.00,VWS V14.01,2013-07-07 01:29:00,
2013-07-06 20:30:00,81.5,56.9,29.96,SSE,158,0.0,0.0,43,0.00,,CLR,0.00,VWS V14.01,2013-07-07 01:30:00,
2013-07-06 20:32:00,81.3,56.7,29.96,SSW,202,4.8,4.8,43,0.00,,CLR,0.00,VWS V14.01,2013-07-07 01:32:00,
2013-07-06 20:34:00,81.3,56.7,29.96,South,180,2.6,4.8,43,0.00,,CLR,0.00,VWS V14.01,2013-07-07 01:34:00,
2013-07-06 20:35:00,81.3,56.7,29.96,South,180,2.6,4.8,43,0.00,,CLR,0.00,VWS V14.01,2013-07-07 01:35:00,
2013-07-06 20:36:00,81.3,56.7,29.96,South,180,0.0,2.6,43,0.00,,CLR,0.00,VWS V14.01,2013-07-07 01:36:00,
2013-07-06 20:38:00,81.3,56.7,29.96,SSE,158,0.0,0.0,43,0.00,,CLR,0.00,VWS V14.01,2013-07-07 01:38:00,
2013-07-06 20:40:00,81.1,56.5,29.96,SSW,202,0.0,0.0,43,0.00,,CLR,0.00,VWS V14.01,2013-07-07 01:40:00,
2013-07-06 20:42:00,80.9,57.0,29.96,SSE,158,0.0,0.0,44,0.00,,CLR,0.00,VWS V14.01,2013-07-07 01:42:00,
2013-07-06 20:43:00,80.9,57.0,29.96,SSE,158,0.0,0.0,44,0.00,,CLR,0.00,VWS V14.01,2013-07-07 01:43:00,
2013-07-06 20:44:00,80.7,56.8,29.96,SSE,158,0.0,0.0,44,0.00,,CLR,0.00,VWS V14.01,2013-07-07 01:44:00,
2013-07-06 20:46:00,80.9,57.0,29.96,SSE,158,0.0,0.0,44,0.00,,CLR,0.00,VWS V14.01,2013-07-07 01:46:00,
2013-07-06 20:47:00,80.9,57.0,29.96,SSE,158,0.0,0.0,44,0.00,,CLR,0.00,VWS V14.01,2013-07-07 01:47:00,
2013-07-06 20:48:00,80.7,56.8,29.96,SSE,158,0.0,0.0,44,0.00,,CLR,0.00,VWS V14.01,2013-07-07 01:48:00,
2013-07-06 20:49:00,80.7,56.8,29.96,SSE,158,0.0,0.0,44,0.00,,CLR,0.00,VWS V14.01,2013-07-07 01:49:00,
2013-07-06 20:50:00,80.7,56.8,29.96,South,180,0.0,0.0,44,0.00,,CLR,0.00,VWS V14.01,2013-07-07 01:50:00,
2013-07-06 20:51:00,80.7,56.8,29.96,South,180,0.0,0.0,44,0.00,,CLR,0.00,VWS V14.01,2013-07-07 01:51:00,
2013-07-06 20:52:00,80.6,56.7,29.96,South,180,0.0,0.0,44,0.00,,CLR,0.00,VWS V14.01,2013-07-07 01:52:00,
2013-07-06 20:54:00,80.4,57.1,29.96,South,180,0.0,0.0,45,0.00,,CLR,0.00,VWS V14.01,2013-07-07 01:54:00,
2013-07-06 20:56:00,80.4,57.1,29.97,SSE,158,0.0,0.0,45,0.00,,CLR,0.00,VWS V14.01,2013-07-07 01:56:00,
2013-07-06 20:58:00,80.2,57.0,29.96,South,180,0.0,0.0,45,0.00,,CLR,0.00,VWS V14.01,2013-07-07 01:58:00,
2013-07-06 21:00:00,80.2,57.0,29.97,SSW,202,0.0,0.0,45,0.00,,CLR,0.00,VWS V14.01,2013-07-07 02:00:00,
2013-07-06 21:02:00,80.0,56.8,29.97,SSW,202,0.0,0.0,45,0.00,,CLR,0.00,VWS V14.01,2013-07-07 02:02:00,
2013-07-06 21:04:00,80.0,57.4,29.96,SSE,158,0.0,0.0,46,0.00,,CLR,0.00,VWS V14.01,2013-07-07 02:04:00,
2013-07-06 21:05:00,80.0,57.4,29.96,SSE,158,0.0,0.0,46,0.00,,CLR,0.00,VWS V14.01,2013-07-07 02:05:00,
2013-07-06 21:06:00,80.0,57.4,29.96,SSE,158,0.0,0.0,46,0.00,,CLR,0.00,VWS V14.01,2013-07-07 02:06:00,
2013-07-06 21:07:00,80.0,57.4,29.96,SSE,158,0.0,0.0,46,0.00,,CLR,0.00,VWS V14.01,2013-07-07 02:07:00,
2013-07-06 21:08:00,79.7,57.1,29.97,South,180,0.0,0.0,46,0.00,,CLR,0.00,VWS V14.01,2013-07-07 02:08:00,
2013-07-06 21:10:00,79.8,57.2,29.97,South,180,0.0,0.0,46,0.00,,CLR,0.00,VWS V14.01,2013-07-07 02:10:00,
2013-07-06 21:11:00,79.7,57.1,29.97,SE,135,0.0,0.0,46,0.00,,CLR,0.00,VWS V14.01,2013-07-07 02:11:00,
2013-07-06 21:12:00,79.7,57.1,29.97,SSE,158,0.0,0.0,46,0.00,,CLR,0.00,VWS V14.01,2013-07-07 02:12:00,
2013-07-06 21:14:00,79.7,57.1,29.97,SSE,158,0.0,0.0,46,0.00,,CLR,0.00,VWS V14.01,2013-07-07 02:14:00,
2013-07-06 21:16:00,79.5,57.5,29.97,South,180,0.0,0.0,47,0.00,,CLR,0.00,VWS V14.01,2013-07-07 02:16:00,
2013-07-06 21:18:00,79.5,58.1,29.97,South,180,0.0,0.0,48,0.00,,CLR,0.00,VWS V14.01,2013-07-07 02:18:00,
2013-07-06 21:19:00,79.5,58.1,29.97,South,180,0.0,0.0,48,0.00,,CLR,0.00,VWS V14.01,2013-07-07 02:19:00,
2013-07-06 21:20:00,79.3,57.9,29.97,SW,225,0.0,0.0,48,0.00,,CLR,0.00,VWS V14.01,2013-07-07 02:20:00,
2013-07-06 21:22:00,79.5,58.1,29.97,South,180,0.0,0.0,48,0.00,,CLR,0.00,VWS V14.01,2013-07-07 02:22:00,
2013-07-06 21:24:00,79.1,57.8,29.97,SSE,158,0.0,0.0,48,0.00,,CLR,0.00,VWS V14.01,2013-07-07 02:24:00,
2013-07-06 21:26:00,79.1,57.8,29.97,SSE,158,0.0,0.0,48,0.00,,CLR,0.00,VWS V14.01,2013-07-07 02:26:00,
2013-07-06 21:27:00,79.1,57.8,29.97,SSW,202,0.0,0.0,48,0.00,,CLR,0.00,VWS V14.01,2013-07-07 02:27:00,
2013-07-06 21:28:00,79.1,58.3,29.98,SSE,158,0.0,0.0,49,0.00,,CLR,0.00,VWS V14.01,2013-07-07 02:28:00,
2013-07-06 21:30:00,78.9,58.1,29.98,SSE,158,0.0,0.0,49,0.00,,CLR,0.00,VWS V14.01,2013-07-07 02:30:00,
2013-07-06 21:32:00,78.9,58.1,29.98,SSW,202,0.0,0.0,49,0.00,,CLR,0.00,VWS V14.01,2013-07-07 02:32:00,
2013-07-06 21:34:00,78.9,58.1,29.98,South,180,0.0,0.0,49,0.00,,CLR,0.00,VWS V14.01,2013-07-07 02:34:00,
2013-07-06 21:36:00,78.6,57.9,29.98,South,180,0.0,0.0,49,0.00,,CLR,0.00,VWS V14.01,2013-07-07 02:36:00,
2013-07-06 21:37:00,78.6,57.9,29.98,South,180,0.0,0.0,49,0.00,,CLR,0.00,VWS V14.01,2013-07-07 02:37:00,
2013-07-06 21:38:00,78.6,57.9,29.98,South,180,0.0,0.0,49,0.00,,CLR,0.00,VWS V14.01,2013-07-07 02:38:00,
2013-07-06 21:39:00,78.6,57.9,29.98,South,180,0.0,0.0,49,0.00,,CLR,0.00,VWS V14.01,2013-07-07 02:39:00,
2013-07-06 21:40:00,78.6,57.9,29.98,South,180,0.0,0.0,49,0.00,,CLR,0.00,VWS V14.01,2013-07-07 02:40:00,
2013-07-06 21:42:00,78.4,57.7,29.98,South,180,0.0,0.0,49,0.00,,CLR,0.00,VWS V14.01,2013-07-07 02:42:00,
2013-07-06 21:44:00,78.4,57.7,29.98,SSW,202,0.0,0.0,49,0.00,,CLR,0.00,VWS V14.01,2013-07-07 02:44:00,
2013-07-06 21:46:00,78.4,58.2,29.98,SSE,158,0.0,0.0,50,0.00,,CLR,0.00,VWS V14.01,2013-07-07 02:46:00,
2013-07-06 21:48:00,78.4,58.2,29.98,South,180,0.0,0.0,50,0.00,,CLR,0.00,VWS V14.01,2013-07-07 02:48:00,
2013-07-06 21:50:00,78.2,58.1,29.98,South,180,0.0,0.0,50,0.00,,CLR,0.00,VWS V14.01,2013-07-07 02:50:00,
2013-07-06 21:51:00,78.2,58.1,29.98,South,180,0.0,0.0,50,0.00,,CLR,0.00,VWS V14.01,2013-07-07 02:51:00,
2013-07-06 21:52:00,78.2,58.1,29.98,South,180,0.0,0.0,50,0.00,,CLR,0.00,VWS V14.01,2013-07-07 02:52:00,
2013-07-06 21:53:00,78.2,58.1,29.98,South,180,0.0,0.0,50,0.00,,CLR,0.00,VWS V14.01,2013-07-07 02:53:00,
2013-07-06 21:54:00,78.2,58.1,29.98,South,180,0.0,0.0,50,0.00,,CLR,0.00,VWS V14.01,2013-07-07 02:54:00,
2013-07-06 21:56:00,78.2,58.1,29.98,South,180,0.0,0.0,50,0.00,,CLR,0.00,VWS V14.01,2013-07-07 02:56:00,
2013-07-06 21:57:00,78.0,57.9,29.98,SSE,158,0.0,0.0,50,0.00,,CLR,0.00,VWS V14.01,2013-07-07 02:57:00,
2013-07-06 21:58:00,78.2,58.1,29.98,South,180,8.4,8.4,50,0.00,,CLR,0.00,VWS V14.01,2013-07-07 02:58:00,
2013-07-06 21:59:00,78.2,58.1,29.98,South,180,8.4,8.4,50,0.00,,CLR,0.00,VWS V14.01,2013-07-07 02:59:00,
2013-07-06 22:00:00,78.2,58.1,29.98,South,180,0.0,8.4,50,0.00,,CLR,0.00,VWS V14.01,2013-07-07 03:00:00,
2013-07-06 22:02:00,78.0,57.9,29.98,SE,135,0.0,0.0,50,0.00,,CLR,0.00,VWS V14.01,2013-07-07 03:02:00,
2013-07-06 22:04:00,78.0,58.4,29.98,SSE,158,0.0,0.0,51,0.00,,CLR,0.00,VWS V14.01,2013-07-07 03:04:00,
2013-07-06 22:05:00,78.0,58.4,29.98,SSE,158,0.0,0.0,51,0.00,,CLR,0.00,VWS V14.01,2013-07-07 03:05:00,
2013-07-06 22:06:00,78.0,58.4,29.98,SSE,158,0.0,0.0,51,0.00,,CLR,0.00,VWS V14.01,2013-07-07 03:06:00,
2013-07-06 22:08:00,77.9,58.3,29.98,SSE,158,7.0,7.0,51,0.00,,CLR,0.00,VWS V14.01,2013-07-07 03:08:00,
2013-07-06 22:10:00,77.9,58.3,29.98,SSE,158,0.0,0.0,51,0.00,,CLR,0.00,VWS V14.01,2013-07-07 03:10:00,
2013-07-06 22:11:00,77.9,58.3,29.98,SSE,158,0.0,0.0,51,0.00,,CLR,0.00,VWS V14.01,2013-07-07 03:11:00,
2013-07-06 22:12:00,77.9,58.3,29.98,SSE,158,0.0,0.0,51,0.00,,CLR,0.00,VWS V14.01,2013-07-07 03:12:00,
2013-07-06 22:14:00,77.7,58.7,29.98,South,180,0.0,0.0,52,0.00,,CLR,0.00,VWS V14.01,2013-07-07 03:14:00,
2013-07-06 22:16:00,77.7,58.7,29.98,SSW,202,0.0,0.0,52,0.00,,CLR,0.00,VWS V14.01,2013-07-07 03:16:00,
2013-07-06 22:17:00,77.7,58.7,29.98,SSW,202,0.0,0.0,52,0.00,,CLR,0.00,VWS V14.01,2013-07-07 03:17:00,
2013-07-06 22:18:00,77.7,58.7,29.98,SSW,202,0.0,0.0,52,0.00,,CLR,0.00,VWS V14.01,2013-07-07 03:18:00,
2013-07-06 22:19:00,77.7,58.7,29.98,SSW,202,0.0,0.0,52,0.00,,CLR,0.00,VWS V14.01,2013-07-07 03:19:00,
2013-07-06 22:20:00,77.7,58.7,29.98,South,180,0.0,0.0,52,0.00,,CLR,0.00,VWS V14.01,2013-07-07 03:20:00,
2013-07-06 22:22:00,77.7,59.2,29.98,South,180,0.0,0.0,53,0.00,,CLR,0.00,VWS V14.01,2013-07-07 03:22:00,
2013-07-06 22:24:00,77.5,59.0,29.98,South,180,0.0,0.0,53,0.00,,CLR,0.00,VWS V14.01,2013-07-07 03:24:00,
2013-07-06 22:25:00,77.5,59.0,29.98,South,180,0.0,0.0,53,0.00,,CLR,0.00,VWS V14.01,2013-07-07 03:25:00,
2013-07-06 22:26:00,77.3,58.8,29.98,SSE,158,0.0,0.0,53,0.00,,CLR,0.00,VWS V14.01,2013-07-07 03:26:00,
2013-07-06 22:28:00,77.3,58.8,29.98,South,180,0.0,0.0,53,0.00,,CLR,0.00,VWS V14.01,2013-07-07 03:28:00,
2013-07-06 22:30:00,77.3,58.8,29.98,South,180,0.0,0.0,53,0.00,,CLR,0.00,VWS V14.01,2013-07-07 03:30:00,
2013-07-06 22:31:00,77.3,58.8,29.98,South,180,0.0,0.0,53,0.00,,CLR,0.00,VWS V14.01,2013-07-07 03:31:00,
2013-07-06 22:32:00,77.3,58.8,29.98,SSE,158,0.0,0.0,53,0.00,,CLR,0.00,VWS V14.01,2013-07-07 03:32:00,
2013-07-06 22:34:00,77.3,58.8,29.98,SSE,158,0.0,0.0,53,0.00,,CLR,0.00,VWS V14.01,2013-07-07 03:34:00,
2013-07-06 22:36:00,77.3,58.8,29.98,SSE,158,0.0,0.0,53,0.00,,CLR,0.00,VWS V14.01,2013-07-07 03:36:00,
2013-07-06 22:38:00,77.1,59.2,29.98,SSW,202,0.0,0.0,54,0.00,,CLR,0.00,VWS V14.01,2013-07-07 03:38:00,
2013-07-06 22:39:00,77.1,59.2,29.98,SSW,202,0.0,0.0,54,0.00,,CLR,0.00,VWS V14.01,2013-07-07 03:39:00,
2013-07-06 22:40:00,77.1,59.2,29.98,SSE,158,0.0,0.0,54,0.00,,CLR,0.00,VWS V14.01,2013-07-07 03:40:00,
2013-07-06 22:42:00,77.1,59.2,29.98,South,180,0.0,0.0,54,0.00,,CLR,0.00,VWS V14.01,2013-07-07 03:42:00,
2013-07-06 22:44:00,77.1,59.2,29.98,SSE,158,0.0,0.0,54,0.00,,CLR,0.00,VWS V14.01,2013-07-07 03:44:00,
2013-07-06 22:46:00,77.0,59.1,29.98,SSE,158,0.0,0.0,54,0.00,,CLR,0.00,VWS V14.01,2013-07-07 03:46:00,
2013-07-06 22:48:00,76.8,58.9,29.98,South,180,0.0,0.0,54,0.00,,CLR,0.00,VWS V14.01,2013-07-07 03:48:00,
2013-07-06 22:49:00,76.8,58.9,29.98,South,180,0.0,0.0,54,0.00,,CLR,0.00,VWS V14.01,2013-07-07 03:49:00,
2013-07-06 22:50:00,76.6,59.2,29.98,SSE,158,0.0,2.2,55,0.00,,CLR,0.00,VWS V14.01,2013-07-07 03:50:00,
2013-07-06 22:51:00,76.6,59.2,29.98,SSE,158,0.0,0.0,55,0.00,,CLR,0.00,VWS V14.01,2013-07-07 03:51:00,
2013-07-06 22:52:00,76.6,59.2,29.98,South,180,0.0,0.0,55,0.00,,CLR,0.00,VWS V14.01,2013-07-07 03:52:00,
2013-07-06 22:54:00,76.6,59.2,29.98,South,180,0.0,0.0,55,0.00,,CLR,0.00,VWS V14.01,2013-07-07 03:54:00,
2013-07-06 22:55:00,76.6,59.2,29.98,South,180,0.0,0.0,55,0.00,,CLR,0.00,VWS V14.01,2013-07-07 03:55:00,
2013-07-06 22:56:00,76.6,59.2,29.98,SSE,158,0.0,0.0,55,0.00,,CLR,0.00,VWS V14.01,2013-07-07 03:56:00,
2013-07-06 22:58:00,76.4,59.1,29.98,South,180,0.0,0.0,55,0.00,,CLR,0.00,VWS V14.01,2013-07-07 03:58:00,
2013-07-06 23:00:00,76.4,59.1,29.98,SSE,158,0.0,0.0,55,0.00,,CLR,0.00,VWS V14.01,2013-07-07 04:00:00,
2013-07-06 23:01:00,76.4,59.1,29.98,SSE,158,0.0,0.0,55,0.00,,CLR,0.00,VWS V14.01,2013-07-07 04:01:00,
2013-07-06 23:02:00,76.4,59.6,29.98,South,180,0.0,0.0,56,0.00,,CLR,0.00,VWS V14.01,2013-07-07 04:02:00,
2013-07-06 23:03:00,76.4,59.6,29.98,South,180,0.0,0.0,56,0.00,,CLR,0.00,VWS V14.01,2013-07-07 04:03:00,
2013-07-06 23:04:00,76.1,59.3,29.98,South,180,0.0,0.0,56,0.00,,CLR,0.00,VWS V14.01,2013-07-07 04:04:00,
2013-07-06 23:05:00,76.1,59.3,29.98,South,180,0.0,0.0,56,0.00,,CLR,0.00,VWS V14.01,2013-07-07 04:05:00,
2013-07-06 23:06:00,76.4,59.6,29.98,SSE,158,0.0,1.6,56,0.00,,CLR,0.00,VWS V14.01,2013-07-07 04:06:00,
2013-07-06 23:08:00,76.4,59.6,29.98,SSE,158,3.4,3.4,56,0.00,,CLR,0.00,VWS V14.01,2013-07-07 04:08:00,
2013-07-06 23:09:00,76.1,59.3,29.98,South,180,0.0,0.0,56,0.00,,CLR,0.00,VWS V14.01,2013-07-07 04:09:00,
2013-07-06 23:10:00,76.1,59.8,29.98,SSE,158,0.0,0.0,57,0.00,,CLR,0.00,VWS V14.01,2013-07-07 04:10:00,
2013-07-06 23:11:00,76.1,59.8,29.98,SSE,158,0.0,0.0,57,0.00,,CLR,0.00,VWS V14.01,2013-07-07 04:11:00,
2013-07-06 23:12:00,76.1,59.8,29.98,SSE,158,5.8,5.8,57,0.00,,CLR,0.00,VWS V14.01,2013-07-07 04:12:00,
2013-07-06 23:13:00,76.1,59.8,29.98,SSE,158,5.8,5.8,57,0.00,,CLR,0.00,VWS V14.01,2013-07-07 04:13:00,
2013-07-06 23:14:00,75.9,60.1,29.98,SSW,202,0.0,5.8,58,0.00,,CLR,0.00,VWS V14.01,2013-07-07 04:14:00,
2013-07-06 23:15:00,75.9,60.1,29.98,SSW,202,0.0,0.0,58,0.00,,CLR,0.00,VWS V14.01,2013-07-07 04:15:00,
2013-07-06 23:16:00,75.9,60.1,29.98,South,180,0.0,0.0,58,0.00,,CLR,0.00,VWS V14.01,2013-07-07 04:16:00,
2013-07-06 23:17:00,76.1,59.8,29.98,South,180,0.0,0.0,57,0.00,,CLR,0.00,VWS V14.01,2013-07-07 04:17:00,
2013-07-06 23:18:00,75.9,60.1,29.98,SSW,202,0.0,0.0,58,0.00,,CLR,0.00,VWS V14.01,2013-07-07 04:18:00,
2013-07-06 23:20:00,75.9,60.1,29.98,South,180,0.0,0.0,58,0.00,,CLR,0.00,VWS V14.01,2013-07-07 04:20:00,
2013-07-06 23:22:00,75.9,60.1,29.98,SSE,158,0.0,0.0,58,0.00,,CLR,0.00,VWS V14.01,2013-07-07 04:22:00,
2013-07-06 23:23:00,75.9,60.1,29.98,South,180,10.6,10.6,58,0.00,,CLR,0.00,VWS V14.01,2013-07-07 04:23:00,
2013-07-06 23:24:00,75.9,60.1,29.98,South,180,0.0,10.6,58,0.00,,CLR,0.00,VWS V14.01,2013-07-07 04:24:00,
2013-07-06 23:26:00,75.9,60.6,29.98,South,180,0.0,0.0,59,0.00,,CLR,0.00,VWS V14.01,2013-07-07 04:26:00,
2013-07-06 23:27:00,75.9,60.6,29.98,South,180,0.0,0.0,59,0.00,,CLR,0.00,VWS V14.01,2013-07-07 04:27:00,
2013-07-06 23:28:00,75.9,60.6,29.98,SSE,158,0.0,0.0,59,0.00,,CLR,0.00,VWS V14.01,2013-07-07 04:28:00,
2013-07-06 23:29:00,75.9,60.6,29.98,South,180,0.0,0.0,59,0.00,,CLR,0.00,VWS V14.01,2013-07-07 04:29:00,
2013-07-06 23:30:00,75.9,60.6,29.98,South,180,0.0,0.0,59,0.00,,CLR,0.00,VWS V14.01,2013-07-07 04:30:00,
2013-07-06 23:31:00,75.7,60.4,29.98,South,180,0.0,0.0,59,0.00,,CLR,0.00,VWS V14.01,2013-07-07 04:31:00,
2013-07-06 23:32:00,75.9,60.6,29.98,South,180,0.0,0.0,59,0.00,,CLR,0.00,VWS V14.01,2013-07-07 04:32:00,
2013-07-06 23:34:00,75.7,60.4,29.98,SSW,202,0.0,0.0,59,0.00,,CLR,0.00,VWS V14.01,2013-07-07 04:34:00,
2013-07-06 23:36:00,75.7,60.4,29.98,South,180,0.0,0.0,59,0.00,,CLR,0.00,VWS V14.01,2013-07-07 04:36:00,
2013-07-06 23:37:00,75.5,60.2,29.98,SSW,202,0.0,0.0,59,0.00,,CLR,0.00,VWS V14.01,2013-07-07 04:37:00,
2013-07-06 23:38:00,75.9,60.6,29.98,South,180,0.0,0.0,59,0.00,,CLR,0.00,VWS V14.01,2013-07-07 04:38:00,
2013-07-06 23:39:00,75.9,60.6,29.98,South,180,0.0,0.0,59,0.00,,CLR,0.00,VWS V14.01,2013-07-07 04:39:00,
2013-07-06 23:40:00,75.9,60.6,29.98,SSE,158,2.2,2.2,59,0.00,,CLR,0.00,VWS V14.01,2013-07-07 04:40:00,
2013-07-06 23:41:00,75.7,60.4,29.98,South,180,0.0,0.0,59,0.00,,CLR,0.00,VWS V14.01,2013-07-07 04:41:00,
2013-07-06 23:42:00,75.7,60.4,29.98,SSE,158,0.0,0.0,59,0.00,,CLR,0.00,VWS V14.01,2013-07-07 04:42:00,
2013-07-06 23:43:00,75.7,60.4,29.98,SSE,158,0.0,0.0,59,0.00,,CLR,0.00,VWS V14.01,2013-07-07 04:43:00,
2013-07-06 23:44:00,75.5,60.2,29.98,SSE,158,0.0,0.0,59,0.00,,CLR,0.00,VWS V14.01,2013-07-07 04:44:00,
2013-07-06 23:45:00,75.5,60.2,29.98,SSE,158,0.0,0.0,59,0.00,,CLR,0.00,VWS V14.01,2013-07-07 04:45:00,
2013-07-06 23:46:00,75.5,60.2,29.98,South,180,9.2,9.2,59,0.00,,CLR,0.00,VWS V14.01,2013-07-07 04:46:00,
2013-07-06 23:48:00,75.3,60.0,29.98,SSE,158,4.0,4.0,59,0.00,,CLR,0.00,VWS V14.01,2013-07-07 04:48:00,
2013-07-06 23:49:00,75.3,60.0,29.98,SSE,158,4.0,4.0,59,0.00,,CLR,0.00,VWS V14.01,2013-07-07 04:49:00,
2013-07-06 23:50:00,75.5,60.7,29.98,South,180,0.0,4.0,60,0.00,,CLR,0.00,VWS V14.01,2013-07-07 04:50:00,
2013-07-06 23:51:00,75.5,60.7,29.98,South,180,0.0,0.0,60,0.00,,CLR,0.00,VWS V14.01,2013-07-07 04:51:00,
2013-07-06 23:52:00,75.5,60.7,29.98,SSE,158,0.0,0.0,60,0.00,,CLR,0.00,VWS V14.01,2013-07-07 04:52:00,
2013-07-06 23:53:00,75.5,60.7,29.98,SSE,158,0.0,0.0,60,0.00,,CLR,0.00,VWS V14.01,2013-07-07 04:53:00,
2013-07-06 23:54:00,75.5,60.7,29.98,SSE,158,0.0,0.0,60,0.00,,CLR,0.00,VWS V14.01,2013-07-07 04:54:00,
2013-07-06 23:55:00,75.5,60.7,29.98,SSE,158,0.0,0.0,60,0.00,,CLR,0.00,VWS V14.01,2013-07-07 04:55:00,
2013-07-06 23:56:00,75.3,60.5,29.98,South,180,0.0,0.0,60,0.00,,CLR,0.00,VWS V14.01,2013-07-07 04:56:00,
2013-07-06 23:58:00,75.3,60.5,29.98,SSW,202,0.0,0.0,60,0.00,,CLR,0.00,VWS V14.01,2013-07-07 04:58:00,
2013-07-06 23:59:00,75.3,60.5,29.98,SSW,202,0.0,0.0,60,0.00,,CLR,0.00,VWS V14.01,2013-07-07 04:59:00,